EW4595 Weather Reports


time (UTC)temp
C
wind
direction
speed
KPH
gust
KPH
rain 1hr
cm
rain 24hr
cm
rain mn
cm
humidity
%
barometer
mb
20260902102307 13 3 3.2 11.3 0.00 0.00 0.00 95 1016.8
20260902102217 13 359 6.4 14.5 0.00 0.00 0.00 95 1016.8
20260902102203 13 358 6.4 14.5 0.00 0.00 0.00 95 1016.8
20260902102103 13 351 6.4 14.5 0.00 0.00 0.00 95 1016.7
20260902101903 13 5 4.8 14.5 0.00 0.00 0.00 95 1016.8
20260902101803 13 10 6.4 14.5 0.00 0.00 0.00 96 1016.8
20260902101703 13 18 9.7 14.5 0.00 0.00 0.00 96 1016.8
20260902101603 13 18 3.2 11.3 0.00 0.00 0.00 96 1016.6
20260902101503 13 6 4.8 17.7 0.00 0.00 0.00 96 1016.6
20260902101403 13 354 4.8 17.7 0.00 0.00 0.00 96 1016.7
20260902101318 13 351 3.2 17.7 0.00 0.00 0.00 96 1016.8
20260902101303 13 349 3.2 17.7 0.00 0.00 0.00 96 1016.8
20260902101203 13 347 6.4 17.7 0.00 0.00 0.00 96 1016.6
20260902101003 13 345 9.7 17.7 0.00 0.00 0.00 96 1016.7
20260902100903 12 358 6.4 12.9 0.00 0.00 0.00 96 1016.5
20260902100803 13 2 3.2 11.3 0.00 0.00 0.00 96 1016.7
20260902100703 13 6 3.2 6.4 0.00 0.00 0.00 96 1016.5
20260902100503 12 356 3.2 11.3 0.00 0.00 0.00 96 1016.6
20260902100403 13 351 3.2 11.3 0.00 0.00 0.00 96 1016.6
20260902100303 13 347 1.6 11.3 0.00 0.00 0.00 96 1016.6
20260902100203 13 357 1.6 12.9 0.00 0.00 0.00 96 1016.6
20260902100006 13 13 3.2 12.9 0.00 0.00 0.00 96 1016.6
20260902095903 13 13 3.2 12.9 0.00 0.00 0.00 96 1016.5
20260902095803 13 12 3.2 12.9 0.00 0.00 0.00 96 1016.6
20260902095703 13 12 6.4 12.9 0.00 0.00 0.00 96 1016.6
20260902095603 13 10 3.2 11.3 0.00 0.00 0.00 96 1016.4
20260902095503 13 13 4.8 11.3 0.00 0.00 0.00 96 1016.7
20260902095417 13 16 6.4 11.3 0.00 0.00 0.00 96 1016.6
20260902095403 13 17 6.4 11.3 0.00 0.00 0.00 96 1016.6
20260902095306 13 19 6.4 11.3 0.00 0.00 0.00 96 1016.7
20260902095103 12 10 3.2 6.4 0.00 0.00 0.00 96 1016.5
20260902095003 12 358 1.6 9.7 0.00 0.00 0.00 96 1016.5
20260902094917 12 359 3.2 9.7 0.00 0.00 0.00 96 1016.6
20260902094903 12 360 3.2 9.7 0.00 0.00 0.00 96 1016.6
20260902094803 12 360 3.2 9.7 0.00 0.00 0.00 96 1016.8
20260902094603 12 14 3.2 9.7 0.00 0.00 0.00 96 1016.6
20260902094503 13 30 4.8 9.7 0.00 0.00 0.00 96 1016.8
20260902094417 13 37 3.2 9.7 0.00 0.00 0.00 96 1016.5
20260902094403 13 39 3.2 9.7 0.00 0.00 0.00 96 1016.5
20260902094303 13 35 3.2 9.7 0.00 0.00 0.00 96 1016.9
20260902094103 13 37 4.8 9.7 0.00 0.00 0.00 96 1016.5
20260902094003 13 31 6.4 9.7 0.00 0.00 0.00 96 1016.4
20260902093916 13 21 3.2 6.4 0.00 0.00 0.00 96 1016.7
20260902093903 13 16 3.2 6.4 0.00 0.00 0.00 96 1016.6
20260902093803 13 20 3.2 6.4 0.00 0.00 0.00 96 1016.8
20260902093603 13 14 3.2 9.7 0.00 0.00 0.00 96 1016.5
20260902093503 13 13 1.6 9.7 0.00 0.00 0.00 96 1016.7
20260902093403 13 16 3.2 9.7 0.00 0.00 0.00 96 1016.7
20260902093303 13 16 3.2 9.7 0.00 0.00 0.00 96 1016.7
20260902093203 13 15 3.2 9.7 0.00 0.00 0.00 96 1016.7
20260902093103 13 9 1.6 6.4 0.00 0.00 0.00 96 1016.8
20260902093003 13 16 1.6 3.2 0.00 0.00 0.00 96 1016.9
20260902092903 13 14 1.6 3.2 0.00 0.00 0.00 96 1016.8
20260902092803 13 15 1.6 3.2 0.00 0.00 0.00 96 1016.8
20260902092703 13 22 1.6 3.2 0.00 0.00 0.00 96 1016.8
20260902092618 13 33 0.0 3.2 0.00 0.00 0.00 96 1016.9
20260902092603 13 34 0.0 3.2 0.00 0.00 0.00 96 1016.9
20260902092503 13 35 1.6 3.2 0.00 0.00 0.00 96 1016.8
20260902092305 13 35 0.0 6.4 0.00 0.00 0.00 96 1016.8
20260902092203 13 29 0.0 6.4 0.00 0.00 0.00 96 1016.9
20260902092103 13 28 0.0 6.4 0.00 0.00 0.00 96 1016.8
20260902092003 13 29 1.6 6.4 0.00 0.00 0.00 96 1016.8
20260902091903 13 20 1.6 6.4 0.00 0.00 0.00 96 1016.9
20260902091718 13 11 3.2 6.4 0.00 0.00 0.00 96 1016.9
20260902091703 13 8 3.2 6.4 0.00 0.00 0.00 96 1016.9
20260902091618 13 4 1.6 6.4 0.00 0.00 0.00 96 1016.9
20260902091603 13 2 1.6 6.4 0.00 0.00 0.00 96 1016.9
20260902091303 13 7 3.2 6.4 0.00 0.00 0.00 96 1017.1
20260902091203 13 11 3.2 6.4 0.00 0.00 0.00 96 1016.8
20260902091117 13 14 3.2 6.4 0.00 0.00 0.00 96 1016.8
20260902091103 13 13 1.6 6.4 0.00 0.00 0.00 96 1016.9
20260902091003 13 7 3.2 6.4 0.00 0.00 0.00 96 1017.0
20260902090817 13 357 3.2 6.4 0.00 0.00 0.00 96 1016.6
20260902090803 13 354 3.2 6.4 0.00 0.00 0.00 96 1016.6
20260902090703 13 354 1.6 6.4 0.00 0.00 0.00 96 1016.9
20260902090503 13 357 3.2 6.4 0.00 0.00 0.00 96 1016.9
20260902090417 13 7 3.2 6.4 0.00 0.00 0.00 96 1017.0
20260902090403 13 11 3.2 6.4 0.00 0.00 0.00 96 1017.0
20260902090303 13 360 1.6 6.4 0.00 0.00 0.00 96 1016.6
20260902090004 13 20 0.0 6.4 0.00 0.00 0.00 96 1016.9
20260902085903 13 18 3.2 6.4 0.00 0.00 0.00 96 1016.9
20260902085703 13 33 3.2 6.4 0.00 0.00 0.00 96 1017.0
20260902085603 13 29 1.6 6.4 0.00 0.00 0.00 96 1016.9
20260902085503 13 25 1.6 9.7 0.00 0.00 0.00 96 1016.8
20260902085306 13 10 0.0 9.7 0.00 0.00 0.00 96 1016.8
20260902085203 13 4 1.6 9.7 0.00 0.00 0.00 96 1017.0
20260902085103 13 1 4.8 9.7 0.00 0.00 0.00 96 1016.8
20260902085003 13 359 1.6 6.4 0.00 0.00 0.00 96 1016.7
20260902084903 13 357 4.8 6.4 0.00 0.00 0.00 96 1016.6
20260902084803 13 359 3.2 9.7 0.00 0.00 0.00 96 1017.0
20260902084703 13 6 0.0 9.7 0.00 0.00 0.00 96 1016.8
20260902084603 13 3 3.2 9.7 0.00 0.00 0.00 96 1016.9
20260902084503 13 359 3.2 9.7 0.00 0.00 0.00 96 1017.0
20260902084403 13 1 3.2 11.3 0.00 0.00 0.00 96 1016.9
20260902084318 13 357 4.8 11.3 0.00 0.00 0.00 96 1016.8
20260902084303 13 358 1.6 11.3 0.00 0.00 0.00 96 1016.8
20260902084203 13 357 3.2 11.3 0.00 0.00 0.00 96 1016.8
20260902084003 13 351 4.8 11.3 0.00 0.00 0.00 96 1017.0
20260902083903 13 347 3.2 11.3 0.00 0.00 0.00 96 1017.1
20260902083803 13 350 3.2 9.7 0.00 0.00 0.00 96 1016.9
20260902083703 13 349 3.2 6.4 0.00 0.00 0.00 96 1016.8
20260902083603 13 353 3.2 6.4 0.00 0.00 0.00 96 1016.8
20260902083503 13 353 3.2 6.4 0.00 0.00 0.00 96 1016.9
20260902083403 13 355 3.2 6.4 0.00 0.00 0.00 97 1017.0
20260902083303 13 350 4.8 6.4 0.00 0.00 0.00 97 1016.9
20260902083103 13 340 4.8 12.9 0.00 0.00 0.00 97 1017.0
20260902083003 13 342 3.2 12.9 0.00 0.00 0.00 97 1016.8
20260902082903 13 346 3.2 12.9 0.00 0.00 0.00 97 1016.9
20260902082803 13 345 4.8 12.9 0.00 0.00 0.00 97 1016.8
20260902082703 13 354 6.4 12.9 0.00 0.00 0.00 97 1017.0
20260902082503 13 352 3.2 11.3 0.00 0.00 0.00 97 1016.9
20260902082403 13 347 1.6 11.3 0.00 0.00 0.00 97 1016.9
20260902082308 13 346 6.4 11.3 0.00 0.00 0.00 97 1016.7
20260902082203 13 337 4.8 11.3 0.00 0.00 0.00 97 1017.1
20260902082103 13 337 3.2 11.3 0.00 0.00 0.00 97 1016.7
20260902082003 13 350 6.4 11.3 0.00 0.00 0.00 97 1016.7
20260902081903 13 357 3.2 9.7 0.00 0.00 0.00 97 1016.7
20260902081816 13 360 3.2 9.7 0.00 0.00 0.00 97 1016.9
20260902081803 13 1 3.2 9.7 0.00 0.00 0.00 97 1016.9
20260902081703 13 4 3.2 12.9 0.00 0.00 0.00 97 1016.8
20260902081618 13 5 3.2 12.9 0.00 0.00 0.00 97 1016.7
20260902081503 13 5 4.8 12.9 0.00 0.00 0.00 97 1016.5
20260902081303 13 359 3.2 12.9 0.00 0.00 0.00 97 1016.7
20260902081203 13 359 6.4 12.9 0.00 0.00 0.00 97 1017.0
20260902081110 13 357 3.2 9.7 0.00 0.00 0.00 97 1016.8
20260902081003 13 346 1.6 9.7 0.00 0.00 0.00 97 1016.6
20260902080918 13 348 1.6 9.7 0.00 0.00 0.00 97 1016.8
20260902080903 13 350 1.6 9.7 0.00 0.00 0.00 97 1016.8
20260902080803 13 354 3.2 9.7 0.00 0.00 0.00 97 1016.8
20260902080618 13 12 3.2 11.3 0.00 0.00 0.00 97 1017.0
20260902080603 13 14 3.2 11.3 0.00 0.00 0.00 97 1017.0
20260902080503 13 25 3.2 11.3 0.00 0.00 0.00 97 1016.8
20260902080303 13 28 6.4 11.3 0.00 0.00 0.00 97 1016.7
20260902080203 13 22 6.4 11.3 0.00 0.00 0.00 97 1016.6
20260902080117 13 10 6.4 11.3 0.00 0.00 0.00 97 1016.7
20260902080003 13 1 3.2 11.3 0.00 0.00 0.00 97 1016.6
20260902075803 13 355 3.2 11.3 0.00 0.00 0.00 97 1016.6
20260902075703 13 355 3.2 11.3 0.00 0.00 0.00 97 1016.6
20260902075603 13 354 6.4 11.3 0.00 0.00 0.00 97 1016.8
20260902075403 13 358 3.2 11.3 0.00 0.00 0.00 97 1016.9
20260902075317 13 356 3.2 11.3 0.00 0.00 0.00 97 1016.7
20260902075306 13 355 3.2 11.3 0.00 0.00 0.00 97 1016.7
20260902075203 13 2 3.2 11.3 0.00 0.00 0.00 97 1016.7
20260902075003 13 21 3.2 6.4 0.00 0.00 0.00 97 1016.9
20260902074903 13 7 3.2 9.7 0.00 0.00 0.00 97 1016.9
20260902074803 13 10 3.2 9.7 0.00 0.00 0.00 97 1016.8
20260902074703 13 1 3.2 9.7 0.00 0.00 0.00 97 1016.6
20260902074603 13 4 3.2 9.7 0.00 0.00 0.00 97 1016.8
20260902074503 13 5 1.6 9.7 0.00 0.00 0.00 97 1017.0
20260902074403 13 11 4.8 9.7 0.00 0.00 0.00 97 1017.0
20260902074303 13 7 3.2 6.4 0.00 0.00 0.00 97 1017.0
20260902074218 13 11 1.6 6.4 0.00 0.00 0.00 97 1016.9
20260902074203 13 12 1.6 6.4 0.00 0.00 0.00 97 1016.9
20260902074103 13 9 3.2 6.4 0.00 0.00 0.00 97 1016.9
20260902074017 13 8 3.2 6.4 0.00 0.00 0.00 97 1017.1
20260902073903 13 3 3.2 6.4 0.00 0.00 0.00 97 1016.8
20260902073703 13 9 3.2 6.4 0.00 0.00 0.00 97 1016.9
20260902073603 13 6 1.6 6.4 0.00 0.00 0.00 97 1016.8
20260902073503 13 3 4.8 6.4 0.00 0.00 0.00 97 1017.0
20260902073303 13 358 3.2 6.4 0.00 0.00 0.00 97 1017.1
20260902073203 13 351 3.2 6.4 0.00 0.00 0.00 97 1017.0
20260902073103 13 352 1.6 9.7 0.00 0.00 0.00 97 1016.9
20260902073003 13 349 1.6 9.7 0.00 0.00 0.00 97 1017.2
20260902072903 13 348 3.2 9.7 0.00 0.00 0.00 97 1017.1
20260902072803 13 345 3.2 9.7 0.00 0.00 0.00 97 1017.2
20260902072717 13 347 3.2 9.7 0.00 0.00 0.00 97 1017.1
20260902072603 13 353 6.4 9.7 0.00 0.00 0.00 97 1017.1
20260902072403 13 356 3.2 9.7 0.00 0.00 0.00 97 1017.2
20260902072308 13 1 4.8 9.7 0.00 0.00 0.00 97 1017.2
20260902072218 13 3 3.2 9.7 0.00 0.00 0.00 97 1017.0
20260902072203 13 2 3.2 9.7 0.00 0.00 0.00 97 1017.0
20260902072103 13 356 6.4 9.7 0.00 0.00 0.00 97 1017.2
20260902071903 13 359 3.2 6.4 0.00 0.00 0.00 97 1017.2
20260902071803 13 358 3.2 6.4 0.00 0.00 0.00 97 1017.1
20260902071703 13 353 3.2 6.4 0.00 0.00 0.00 97 1017.2
20260902071603 13 350 1.6 9.7 0.00 0.00 0.00 97 1017.3
20260902071503 13 1 3.2 9.7 0.00 0.00 0.00 96 1016.9
20260902071403 13 1 3.2 9.7 0.00 0.00 0.00 96 1017.1
20260902071303 13 3 1.6 9.7 0.00 0.00 0.00 96 1017.1
20260902071220 13 359 0.0 9.7 0.00 0.00 0.00 96 1017.3
20260902071203 13 358 0.0 9.7 0.00 0.00 0.00 96 1017.3
20260902071103 13 359 4.8 6.4 0.00 0.00 0.00 96 1017.3
20260902070903 13 354 3.2 6.4 0.00 0.00 0.00 96 1017.3
20260902070803 13 353 1.6 6.4 0.00 0.00 0.00 96 1017.3
20260902070703 13 2 3.2 6.4 0.00 0.00 0.00 96 1017.1
20260902070603 13 8 3.2 6.4 0.00 0.00 0.00 96 1017.3
20260902070503 13 4 3.2 6.4 0.00 0.00 0.00 96 1017.4
20260902070403 13 3 3.2 6.4 0.00 0.00 0.00 96 1017.4
20260902070303 13 6 1.6 6.4 0.00 0.00 0.00 96 1017.4
20260902070203 13 354 1.6 6.4 0.00 0.00 0.00 96 1017.4
20260902065903 13 347 3.2 9.7 0.00 0.00 0.00 96 1017.5
20260902065803 13 340 3.2 9.7 0.00 0.00 0.00 96 1017.5
20260902065703 13 345 1.6 9.7 0.00 0.00 0.00 96 1017.5
20260902065603 13 354 0.0 9.7 0.00 0.00 0.00 96 1017.5
20260902065503 13 357 3.2 9.7 0.00 0.00 0.00 96 1017.4
20260902065403 13 3 0.0 6.4 0.00 0.00 0.00 96 1017.5
20260902065306 13 7 0.0 6.4 0.00 0.00 0.00 96 1017.5
20260902065203 13 7 0.0 6.4 0.00 0.00 0.00 96 1017.5
20260902065103 13 353 1.6 6.4 0.00 0.00 0.00 96 1017.5
20260902065003 13 354 0.0 6.4 0.00 0.00 0.00 96 1017.5
20260902064917 13 357 1.6 6.4 0.00 0.00 0.00 96 1017.7
20260902064903 13 359 1.6 6.4 0.00 0.00 0.00 96 1017.7
20260902064803 13 356 3.2 6.4 0.00 0.00 0.00 96 1017.5
20260902064603 13 7 3.2 3.2 0.00 0.00 0.00 96 1017.5
20260902064503 13 21 3.2 3.2 0.00 0.00 0.00 96 1017.6
20260902064403 13 29 1.6 3.2 0.00 0.00 0.00 96 1017.6
20260902064303 13 27 1.6 6.4 0.00 0.00 0.00 96 1017.5
20260902064203 13 33 1.6 6.4 0.00 0.00 0.00 96 1017.5
20260902064103 13 28 1.6 6.4 0.00 0.00 0.00 96 1017.5
20260902064003 13 28 0.0 6.4 0.00 0.00 0.00 96 1017.5
20260902063903 13 30 1.6 6.4 0.00 0.00 0.00 96 1017.7
20260902063803 13 35 1.6 6.4 0.00 0.00 0.00 96 1017.7
20260902063703 13 29 1.6 6.4 0.00 0.00 0.00 96 1017.6
20260902063603 13 29 3.2 6.4 0.00 0.00 0.00 96 1017.7
20260902063503 13 33 3.2 6.4 0.00 0.00 0.00 96 1017.6
20260902063403 13 32 0.0 6.4 0.00 0.00 0.00 96 1017.6
20260902063303 13 33 1.6 6.4 0.00 0.00 0.00 96 1017.4
20260902063203 13 37 0.0 6.4 0.00 0.00 0.00 96 1017.7
20260902063103 13 51 3.2 6.4 0.00 0.00 0.00 96 1017.4
20260902063003 13 51 1.6 6.4 0.00 0.00 0.00 96 1017.7
20260902062903 13 53 0.0 6.4 0.00 0.00 0.00 96 1017.5
20260902062803 13 58 1.6 6.4 0.00 0.00 0.00 96 1017.7
20260902062703 13 64 3.2 6.4 0.00 0.00 0.00 96 1017.5
20260902062603 13 56 0.0 6.4 0.00 0.00 0.00 96 1017.5
20260902062503 13 49 0.0 6.4 0.00 0.00 0.00 96 1017.4
20260902062403 13 50 0.0 6.4 0.00 0.00 0.00 96 1017.5
20260902062305 13 51 1.6 6.4 0.00 0.00 0.00 96 1017.6
20260902062203 13 44 1.6 6.4 0.00 0.00 0.00 96 1017.6
20260902062118 13 41 3.2 6.4 0.00 0.00 0.00 96 1017.7
20260902062103 13 43 3.2 6.4 0.00 0.00 0.00 96 1017.7
20260902062003 13 35 1.6 6.4 0.00 0.00 0.00 96 1017.5
20260902061803 13 15 0.0 6.4 0.00 0.00 0.00 96 1017.6
20260902061718 13 17 1.6 6.4 0.00 0.00 0.00 96 1017.8
20260902061703 13 18 1.6 6.4 0.00 0.00 0.00 96 1017.8
20260902061532 13 24 4.8 6.4 0.00 0.00 0.00 96 1017.8
20260902061432 13 37 3.2 6.4 0.00 0.00 0.00 96 1017.8
20260902061403 13 42 3.2 6.4 0.00 0.00 0.00 96 1017.6
20260902061203 13 40 1.6 6.4 0.00 0.00 0.00 96 1017.6
20260902060907 13 33 3.2 11.3 0.00 0.00 0.00 96 1017.8
20260902060803 13 39 1.6 11.3 0.00 0.00 0.00 96 1017.5
20260902060703 13 35 1.6 11.3 0.00 0.00 0.00 96 1017.6
20260902060603 13 30 3.2 11.3 0.00 0.00 0.00 96 1017.9
20260902060503 13 34 4.8 11.3 0.00 0.00 0.00 96 1017.6
20260902060403 13 34 3.2 6.4 0.00 0.00 0.00 96 1017.8
20260902060317 13 34 3.2 6.4 0.00 0.00 0.00 96 1017.7
20260902060303 13 35 3.2 6.4 0.00 0.00 0.00 96 1017.8
20260902060203 13 49 3.2 6.4 0.00 0.00 0.00 96 1017.9
20260902060003 13 52 3.2 6.4 0.00 0.00 0.00 96 1017.8
20260902055903 13 46 3.2 6.4 0.00 0.00 0.00 96 1018.1
20260902055703 13 38 3.2 6.4 0.00 0.00 0.00 96 1018.0
20260902055603 13 49 3.2 6.4 0.00 0.00 0.00 96 1017.9
20260902055503 13 50 1.6 11.3 0.00 0.00 0.00 96 1017.6
20260902055403 13 43 0.0 11.3 0.00 0.00 0.00 96 1017.7
20260902055306 13 33 1.6 11.3 0.00 0.00 0.00 96 1017.9
20260902055203 13 24 1.6 11.3 0.00 0.00 0.00 96 1017.7
20260902055103 13 15 6.4 11.3 0.00 0.00 0.00 96 1017.6
20260902055003 13 6 3.2 9.7 0.00 0.00 0.00 96 1018.0
20260902054903 13 6 3.2 9.7 0.00 0.00 0.00 96 1018.0
20260902054803 13 10 1.6 9.7 0.00 0.00 0.00 96 1018.0
20260902054703 13 14 3.2 6.4 0.00 0.00 0.00 96 1017.7
20260902054603 13 8 1.6 9.7 0.00 0.00 0.00 96 1017.9
20260902054503 13 12 3.2 9.7 0.00 0.00 0.00 96 1017.7
20260902054403 13 22 4.8 9.7 0.00 0.00 0.00 96 1017.8
20260902054303 13 30 1.6 9.7 0.00 0.00 0.00 96 1018.0
20260902054203 13 40 3.2 9.7 0.00 0.00 0.00 96 1017.9
20260902054103 13 44 3.2 9.7 0.00 0.00 0.00 96 1018.1
20260902054003 13 45 3.2 9.7 0.00 0.00 0.00 96 1017.8
20260902053903 13 34 4.8 9.7 0.00 0.00 0.00 96 1018.0
20260902053817 13 25 3.2 9.7 0.00 0.00 0.00 96 1017.8
20260902053803 13 22 3.2 9.7 0.00 0.00 0.00 96 1017.8
20260902053703 13 6 3.2 6.4 0.00 0.00 0.00 96 1017.9
20260902053503 13 18 1.6 12.9 0.00 0.00 0.00 96 1017.7
20260902053403 13 35 1.6 12.9 0.00 0.00 0.00 96 1017.9
20260902053303 13 36 1.6 14.5 0.00 0.00 0.00 96 1018.0
20260902053203 13 39 1.6 14.5 0.00 0.00 0.00 96 1017.5
20260902053103 13 46 3.2 14.5 0.00 0.00 0.00 96 1018.0
20260902053003 13 46 4.8 14.5 0.00 0.00 0.00 96 1017.9
20260902052917 13 38 6.4 14.5 0.00 0.00 0.00 96 1017.9
20260902052903 13 32 6.4 14.5 0.00 0.00 0.00 96 1017.9
20260902052803 13 43 3.2 14.5 0.00 0.00 0.00 96 1018.0
20260902052617 13 49 3.2 11.3 0.00 0.00 0.00 96 1017.9
20260902052603 13 52 3.2 11.3 0.00 0.00 0.00 96 1017.9
20260902052517 13 55 3.2 11.3 0.00 0.00 0.00 96 1018.0
20260902052503 13 53 3.2 11.3 0.00 0.00 0.00 96 1018.0
20260902052217 13 48 3.2 12.9 0.00 0.00 0.00 96 1018.1
20260902052203 13 47 3.2 12.9 0.00 0.00 0.00 96 1018.1
20260902052103 13 40 3.2 12.9 0.00 0.00 0.00 96 1018.1
20260902051917 13 35 4.8 12.9 0.00 0.00 0.00 96 1018.0
20260902051903 13 32 6.4 12.9 0.00 0.00 0.00 96 1018.2
20260902051803 13 32 4.8 12.9 0.00 0.00 0.00 96 1018.1
20260902051603 13 30 3.2 9.7 0.00 0.00 0.00 96 1018.4
20260902051503 13 22 0.0 6.4 0.00 0.00 0.00 96 1018.3
20260902051403 13 17 0.0 6.4 0.00 0.00 0.00 96 1018.2
20260902051303 13 29 1.6 6.4 0.00 0.00 0.00 96 1018.4
20260902051203 13 25 1.6 6.4 0.00 0.00 0.00 96 1018.2
20260902051103 14 31 3.2 6.4 0.00 0.00 0.00 96 1018.2
20260902051003 14 26 3.2 6.4 0.00 0.00 0.00 96 1018.4
20260902050903 14 16 1.6 6.4 0.00 0.00 0.00 96 1018.2
20260902050803 14 12 3.2 6.4 0.00 0.00 0.00 96 1018.3
20260902050703 14 5 3.2 9.7 0.00 0.00 0.00 96 1018.4
20260902050603 14 356 1.6 9.7 0.00 0.00 0.00 96 1018.4
20260902050504 14 6 1.6 9.7 0.00 0.00 0.00 96 1018.5
20260902050418 14 12 3.2 9.7 0.00 0.00 0.00 96 1018.3
20260902050403 14 15 3.2 9.7 0.00 0.00 0.00 96 1018.3
20260902050303 14 12 3.2 9.7 0.00 0.00 0.00 96 1018.5
20260902050006 14 17 3.2 9.7 0.00 0.00 0.00 96 1018.4
20260902045916 14 17 3.2 9.7 0.00 0.00 0.00 96 1018.4
20260902045903 14 16 4.8 9.7 0.00 0.00 0.00 96 1018.5
20260902045803 14 26 1.6 6.4 0.00 0.00 0.00 96 1018.3
20260902045718 14 28 4.8 6.4 0.00 0.00 0.00 96 1018.4
20260902045603 14 28 1.6 6.4 0.00 0.00 0.00 96 1018.7
20260902045403 14 41 0.0 6.4 0.00 0.00 0.00 96 1018.5
20260902045306 14 52 3.2 6.4 0.00 0.00 0.00 96 1018.6
20260902045203 14 50 1.6 6.4 0.00 0.00 0.00 96 1018.4
20260902045103 14 55 0.0 6.4 0.00 0.00 0.00 95 1018.5
20260902045018 14 52 1.6 6.4 0.00 0.00 0.00 95 1018.6
20260902044903 14 55 1.6 6.4 0.00 0.00 0.00 95 1018.7
20260902044817 14 51 3.2 6.4 0.00 0.00 0.00 95 1018.5
20260902044703 14 48 3.2 6.4 0.00 0.00 0.00 95 1018.5
20260902044503 14 45 0.0 6.4 0.00 0.00 0.00 95 1018.6
20260902044403 14 36 1.6 6.4 0.00 0.00 0.00 95 1018.8
20260902044318 14 34 0.0 6.4 0.00 0.00 0.00 95 1018.6
20260902044303 14 32 0.0 6.4 0.00 0.00 0.00 95 1018.5
20260902044203 14 28 1.6 6.4 0.00 0.00 0.00 95 1018.5
20260902044117 14 32 3.2 6.4 0.00 0.00 0.00 95 1018.6
20260902044003 14 26 3.2 6.4 0.00 0.00 0.00 95 1018.4
20260902043803 14 53 3.2 6.4 0.00 0.00 0.00 95 1018.5
20260902043703 14 73 0.0 6.4 0.00 0.00 0.00 95 1018.5
20260902043603 14 77 1.6 6.4 0.00 0.00 0.00 95 1018.5
20260902043503 14 84 0.0 6.4 0.00 0.00 0.00 95 1018.7
20260902043418 14 78 0.0 6.4 0.00 0.00 0.00 95 1018.8
20260902043403 14 74 0.0 6.4 0.00 0.00 0.00 95 1018.8
20260902043303 14 66 3.2 6.4 0.00 0.00 0.00 95 1018.8
20260902043103 14 53 1.6 6.4 0.00 0.00 0.00 95 1018.6
20260902043003 14 45 3.2 6.4 0.00 0.00 0.00 95 1018.8
20260902042903 14 52 3.2 6.4 0.00 0.00 0.00 95 1018.7
20260902042803 14 47 3.2 6.4 0.00 0.00 0.00 95 1018.9
20260902042703 14 27 0.0 9.7 0.00 0.00 0.00 95 1018.9
20260902042603 14 24 1.6 9.7 0.00 0.00 0.00 95 1018.8
20260902042503 14 27 1.6 9.7 0.00 0.00 0.00 95 1018.7
20260902042403 14 24 1.6 9.7 0.00 0.00 0.00 95 1018.7
20260902042308 14 24 1.6 9.7 0.00 0.00 0.00 95 1018.8
20260902042203 14 43 0.0 6.4 0.00 0.00 0.00 95 1018.7
20260902042103 14 51 0.0 6.4 0.00 0.00 0.00 95 1018.8
20260902042003 14 50 1.6 6.4 0.00 0.00 0.00 95 1018.6
20260902041903 14 53 1.6 6.4 0.00 0.00 0.00 95 1018.9
20260902041803 14 58 3.2 6.4 0.00 0.00 0.00 95 1018.8
20260902041703 14 59 4.8 6.4 0.00 0.00 0.00 95 1018.8
20260902041618 14 58 3.2 6.4 0.00 0.00 0.00 95 1018.8
20260902041603 14 57 3.2 6.4 0.00 0.00 0.00 95 1018.8
20260902041517 14 50 1.6 3.2 0.00 0.00 0.00 95 1018.7
20260902041505 14 51 1.6 3.2 0.00 0.00 0.00 95 1018.7
20260902041203 15 73 0.0 6.4 0.00 0.00 0.00 95 1018.9
20260902041103 14 73 1.6 6.4 0.00 0.00 0.00 95 1019.0
20260902041018 15 77 1.6 6.4 0.00 0.00 0.00 95 1018.9
20260902041003 15 74 1.6 6.4 0.00 0.00 0.00 95 1018.9
20260902040916 15 61 1.6 6.4 0.00 0.00 0.00 95 1018.6
20260902040903 15 55 1.6 6.4 0.00 0.00 0.00 95 1018.6
20260902040718 14 37 0.0 6.4 0.00 0.00 0.00 95 1018.8
20260902040603 15 33 0.0 6.4 0.00 0.00 0.00 95 1018.9
20260902040403 15 49 3.2 6.4 0.00 0.00 0.00 95 1019.0
20260902040303 15 61 0.0 6.4 0.00 0.00 0.00 95 1018.8
20260902040218 15 65 0.0 6.4 0.00 0.00 0.00 95 1018.9
20260902040203 15 66 0.0 6.4 0.00 0.00 0.00 95 1018.9
20260902040117 15 68 1.6 6.4 0.00 0.00 0.00 95 1018.8
20260902040103 15 70 1.6 6.4 0.00 0.00 0.00 95 1018.8
20260902035803 15 73 0.0 6.4 0.00 0.00 0.00 95 1018.7
20260902035703 15 56 1.6 9.7 0.00 0.00 0.00 95 1018.8
20260902035603 15 54 0.0 9.7 0.00 0.00 0.00 95 1018.9
20260902035503 15 56 0.0 9.7 0.00 0.00 0.00 95 1018.9
20260902035403 15 59 0.0 9.7 0.00 0.00 0.00 95 1018.8
20260902035305 15 56 1.6 9.7 0.00 0.00 0.00 95 1018.9
20260902035203 15 63 3.2 9.7 0.00 0.00 0.00 95 1018.6
20260902035103 15 67 0.0 6.4 0.00 0.00 0.00 95 1019.0
20260902035003 15 66 0.0 6.4 0.00 0.00 0.00 95 1019.1
20260902034903 15 65 1.6 6.4 0.00 0.00 0.00 95 1018.9
20260902034703 15 67 3.2 6.4 0.00 0.00 0.00 95 1018.9
20260902034603 15 63 0.0 3.2 0.00 0.00 0.00 95 1019.0
20260902034503 15 54 0.0 3.2 0.00 0.00 0.00 95 1019.0
20260902034403 15 51 0.0 3.2 0.00 0.00 0.00 94 1019.1
20260902034303 15 51 0.0 3.2 0.00 0.00 0.00 94 1018.9
20260902034103 15 65 1.6 3.2 0.00 0.00 0.00 94 1019.0
20260902034003 15 78 1.6 3.2 0.00 0.00 0.00 94 1019.0
20260902033903 15 84 0.0 3.2 0.00 0.00 0.00 94 1019.0
20260902033803 15 82 0.0 3.2 0.00 0.00 0.00 94 1018.8
20260902033703 15 81 1.6 3.2 0.00 0.00 0.00 94 1019.0
20260902033603 15 78 1.6 3.2 0.00 0.00 0.00 94 1018.7
20260902033503 15 74 0.0 3.2 0.00 0.00 0.00 94 1019.0
20260902033403 15 72 0.0 3.2 0.00 0.00 0.00 94 1018.9
20260902033318 15 73 1.6 3.2 0.00 0.00 0.00 94 1018.7
20260902033303 15 74 1.6 3.2 0.00 0.00 0.00 94 1018.7
20260902033203 15 76 0.0 3.2 0.00 0.00 0.00 94 1019.0
20260902033003 15 82 0.0 3.2 0.00 0.00 0.00 94 1019.0
20260902032903 15 70 0.0 3.2 0.00 0.00 0.00 94 1019.0
20260902032803 15 71 0.0 3.2 0.00 0.00 0.00 94 1019.0
20260902032717 15 69 0.0 3.2 0.00 0.00 0.00 94 1019.2
20260902032703 15 71 1.6 3.2 0.00 0.00 0.00 94 1019.0
20260902032603 15 72 0.0 6.4 0.00 0.00 0.00 94 1019.2
20260902032403 15 80 1.6 6.4 0.00 0.00 0.00 94 1019.2
20260902032305 15 81 1.6 6.4 0.00 0.00 0.00 94 1019.3
20260902032203 15 85 1.6 6.4 0.00 0.00 0.00 94 1019.0
20260902032103 15 91 1.6 6.4 0.00 0.00 0.00 94 1019.1
20260902031918 15 95 1.6 3.2 0.00 0.00 0.00 94 1019.2
20260902031909 15 92 0.0 3.2 0.00 0.00 0.00 94 1019.1
20260902031803 15 85 0.0 3.2 0.00 0.00 0.00 94 1019.0
20260902031603 15 84 0.0 3.2 0.00 0.00 0.00 94 1019.2
20260902031503 15 78 0.0 3.2 0.00 0.00 0.00 94 1019.2
20260902031417 15 78 0.0 3.2 0.00 0.00 0.00 94 1019.1
20260902031403 15 80 0.0 3.2 0.00 0.00 0.00 94 1019.1
20260902031303 15 81 1.6 3.2 0.00 0.00 0.00 94 1019.2
20260902031218 15 79 1.6 3.2 0.00 0.00 0.00 94 1019.0
20260902031103 15 76 1.6 3.2 0.00 0.00 0.00 94 1019.0
20260902031017 15 81 1.6 3.2 0.00 0.00 0.00 94 1019.2
20260902030903 15 83 0.0 6.4 0.00 0.00 0.00 94 1019.0
20260902030703 15 90 1.6 6.4 0.00 0.00 0.00 94 1019.1
20260902030603 15 90 1.6 6.4 0.00 0.00 0.00 94 1019.3
20260902030503 15 86 0.0 6.4 0.00 0.00 0.00 94 1019.0
20260902030403 15 82 1.6 6.4 0.00 0.00 0.00 94 1019.3
20260902030303 15 82 0.0 6.4 0.00 0.00 0.00 94 1019.2
20260902030203 15 83 0.0 6.4 0.00 0.00 0.00 94 1019.3
20260902030103 15 83 1.6 6.4 0.00 0.00 0.00 94 1019.1
20260902030003 15 85 1.6 6.4 0.00 0.00 0.00 94 1019.2
20260902025903 15 86 1.6 6.4 0.00 0.00 0.00 94 1019.0
20260902025703 15 75 1.6 6.4 0.00 0.00 0.00 94 1019.1
20260902025603 15 74 1.6 6.4 0.00 0.00 0.00 94 1019.2
20260902025504 15 73 3.2 6.4 0.00 0.00 0.00 93 1019.3
20260902025403 15 72 3.2 6.4 0.00 0.00 0.00 93 1019.3
20260902025306 15 75 3.2 6.4 0.00 0.00 0.00 93 1019.2
20260902025203 15 81 3.2 6.4 0.00 0.00 0.00 93 1019.2
20260902025019 15 83 1.6 6.4 0.00 0.00 0.00 93 1019.1
20260902025003 15 82 1.6 6.4 0.00 0.00 0.00 93 1019.1
20260902024903 15 82 3.2 6.4 0.00 0.00 0.00 93 1019.1
20260902024816 15 81 1.6 6.4 0.00 0.00 0.00 93 1019.3
20260902024703 15 75 3.2 6.4 0.00 0.00 0.00 93 1019.3
20260902024617 15 78 1.6 6.4 0.00 0.00 0.00 93 1019.3
20260902024503 15 83 3.2 6.4 0.00 0.00 0.00 93 1019.0
20260902024303 15 92 1.6 6.4 0.00 0.00 0.00 93 1019.1
20260902024203 15 89 3.2 6.4 0.00 0.00 0.00 93 1019.2
20260902024103 15 82 1.6 6.4 0.00 0.00 0.00 93 1019.3
20260902024005 15 78 1.6 6.4 0.00 0.00 0.00 93 1019.1
20260902023918 15 70 3.2 6.4 0.00 0.00 0.00 93 1019.3
20260902023803 15 65 1.6 6.4 0.00 0.00 0.00 93 1019.5
20260902023618 15 76 0.0 6.4 0.00 0.00 0.00 93 1019.3
20260902023603 15 75 0.0 6.4 0.00 0.00 0.00 93 1019.3
20260902023503 15 84 1.6 6.4 0.00 0.00 0.00 93 1019.2
20260902023317 15 93 0.0 6.4 0.00 0.00 0.00 93 1019.4
20260902023303 15 95 0.0 6.4 0.00 0.00 0.00 93 1019.4
20260902023205 15 93 1.6 6.4 0.00 0.00 0.00 93 1019.3
20260902023003 15 93 3.2 6.4 0.00 0.00 0.00 93 1019.3
20260902022903 15 89 3.2 6.4 0.00 0.00 0.00 93 1019.3
20260902022803 15 89 3.2 6.4 0.00 0.00 0.00 93 1019.2
20260902022703 15 82 3.2 6.4 0.00 0.00 0.00 93 1019.2
20260902022603 15 77 1.6 6.4 0.00 0.00 0.00 93 1019.2
20260902022503 15 74 3.2 6.4 0.00 0.00 0.00 93 1019.4
20260902022405 15 77 3.2 6.4 0.00 0.00 0.00 93 1019.4
20260902022306 15 79 3.2 6.4 0.00 0.00 0.00 93 1019.2
20260902022203 15 74 3.2 6.4 0.00 0.00 0.00 93 1019.2
20260902022103 15 77 1.6 6.4 0.00 0.00 0.00 93 1019.4
20260902022003 15 85 3.2 6.4 0.00 0.00 0.00 93 1019.5
20260902021908 15 90 3.2 6.4 0.00 0.00 0.00 93 1019.3
20260902021805 15 81 3.2 6.4 0.00 0.00 0.00 93 1019.4
20260902021703 15 90 3.2 6.4 0.00 0.00 0.00 93 1019.1
20260902021603 15 96 3.2 6.4 0.00 0.00 0.00 93 1019.4
20260902021518 15 93 3.2 6.4 0.00 0.00 0.00 93 1019.1
20260902021503 15 92 3.2 6.4 0.00 0.00 0.00 93 1019.6
20260902021417 15 87 3.2 6.4 0.00 0.00 0.00 93 1019.5
20260902021403 15 89 3.2 6.4 0.00 0.00 0.00 93 1019.5
20260902021317 15 92 3.2 6.4 0.00 0.00 0.00 92 1019.3
20260902021005 15 90 3.2 11.3 0.00 0.00 0.00 92 1019.5
20260902020903 15 90 3.2 11.3 0.00 0.00 0.00 92 1019.6
20260902020803 15 90 3.2 11.3 0.00 0.00 0.00 92 1019.5
20260902020703 15 89 6.4 11.3 0.00 0.00 0.00 92 1019.4
20260902020617 15 88 3.2 9.7 0.00 0.00 0.00 92 1019.4
20260902020603 15 87 3.2 9.7 0.00 0.00 0.00 92 1019.4
20260902020503 15 85 3.2 6.4 0.00 0.00 0.00 92 1019.6
20260902020305 15 76 3.2 6.4 0.00 0.00 0.00 92 1019.5
20260902020203 15 79 3.2 6.4 0.00 0.00 0.00 92 1019.6
20260902020103 15 88 1.6 6.4 0.00 0.00 0.00 92 1019.6
20260902020003 15 82 1.6 6.4 0.00 0.00 0.00 92 1019.6
20260902015917 15 85 1.6 6.4 0.00 0.00 0.00 92 1019.6
20260902015903 15 84 3.2 9.7 0.00 0.00 0.00 92 1019.7
20260902015803 15 81 4.8 9.7 0.00 0.00 0.00 92 1019.5
20260902015617 15 70 3.2 9.7 0.00 0.00 0.00 92 1019.7
20260902015603 15 68 3.2 9.7 0.00 0.00 0.00 92 1019.7
20260902015503 15 70 1.6 9.7 0.00 0.00 0.00 92 1019.6
20260902015416 15 67 6.4 9.7 0.00 0.00 0.00 92 1019.7
20260902015306 15 79 3.2 6.4 0.00 0.00 0.00 92 1019.4
20260902015103 15 85 1.6 3.2 0.00 0.00 0.00 92 1019.6
20260902015003 15 85 0.0 3.2 0.00 0.00 0.00 92 1019.5
20260902014903 15 81 1.6 3.2 0.00 0.00 0.00 92 1019.6
20260902014803 15 76 1.6 3.2 0.00 0.00 0.00 92 1019.4
20260902014703 15 70 0.0 3.2 0.00 0.00 0.00 92 1019.6
20260902014603 15 68 1.6 3.2 0.00 0.00 0.00 92 1019.7
20260902014503 15 70 1.6 3.2 0.00 0.00 0.00 92 1019.8
20260902014403 15 69 3.2 6.4 0.00 0.00 0.00 92 1019.7
20260902014303 15 72 3.2 6.4 0.00 0.00 0.00 92 1019.6
20260902014203 15 76 0.0 6.4 0.00 0.00 0.00 92 1019.5
20260902014118 15 78 0.0 6.4 0.00 0.00 0.00 92 1019.6
20260902014103 15 76 0.0 6.4 0.00 0.00 0.00 92 1019.6
20260902014003 15 73 1.6 6.4 0.00 0.00 0.00 92 1019.5
20260902013803 15 70 3.2 6.4 0.00 0.00 0.00 91 1019.5
20260902013703 15 66 1.6 6.4 0.00 0.00 0.00 91 1019.5
20260902013603 15 66 1.6 6.4 0.00 0.00 0.00 91 1019.5
20260902013503 15 69 3.2 6.4 0.00 0.00 0.00 91 1019.7
20260902013403 15 76 1.6 6.4 0.00 0.00 0.00 91 1019.7
20260902013303 15 79 1.6 6.4 0.00 0.00 0.00 91 1019.5
20260902013203 15 84 3.2 6.4 0.00 0.00 0.00 91 1019.6
20260902013103 15 87 1.6 6.4 0.00 0.00 0.00 91 1019.5
20260902013003 15 95 1.6 6.4 0.00 0.00 0.00 91 1019.4
20260902012903 15 94 3.2 6.4 0.00 0.00 0.00 91 1019.5
20260902012803 15 89 1.6 6.4 0.00 0.00 0.00 91 1019.3
20260902012703 15 93 3.2 6.4 0.00 0.00 0.00 91 1019.5
20260902012617 15 93 3.2 6.4 0.00 0.00 0.00 91 1019.6
20260902012603 15 90 3.2 6.4 0.00 0.00 0.00 91 1019.6
20260902012503 15 85 0.0 6.4 0.00 0.00 0.00 91 1019.7
20260902012309 15 88 3.2 6.4 0.00 0.00 0.00 91 1019.6
20260902012203 15 82 4.8 6.4 0.00 0.00 0.00 91 1019.7
20260902012103 15 87 3.2 6.4 0.00 0.00 0.00 91 1019.6
20260902012003 15 90 3.2 6.4 0.00 0.00 0.00 91 1019.6
20260902011917 15 86 3.2 6.4 0.00 0.00 0.00 91 1019.5
20260902011903 15 87 1.6 6.4 0.00 0.00 0.00 91 1019.4
20260902011803 15 83 0.0 6.4 0.00 0.00 0.00 91 1019.6
20260902011716 15 80 1.6 6.4 0.00 0.00 0.00 90 1019.5
20260902011603 15 80 3.2 6.4 0.00 0.00 0.00 90 1019.3
20260902011303 15 74 1.6 6.4 0.00 0.00 0.00 90 1019.4
20260902011203 15 74 1.6 6.4 0.00 0.00 0.00 90 1019.4
20260902011003 15 80 3.2 6.4 0.00 0.00 0.00 90 1019.5
20260902010903 15 82 1.6 6.4 0.00 0.00 0.00 90 1019.6
20260902010803 15 82 3.2 6.4 0.00 0.00 0.00 90 1019.5
20260902010703 15 82 3.2 6.4 0.00 0.00 0.00 90 1019.7
20260902010603 16 75 3.2 6.4 0.00 0.00 0.00 90 1019.6
20260902010503 16 65 1.6 6.4 0.00 0.00 0.00 90 1019.6
20260902010418 16 64 1.6 6.4 0.00 0.00 0.00 90 1019.6
20260902010403 16 63 1.6 6.4 0.00 0.00 0.00 90 1019.6
20260902010303 16 64 1.6 6.4 0.00 0.00 0.00 90 1019.6
20260902010003 16 75 3.2 9.7 0.00 0.00 0.00 90 1019.6
20260902005904 16 77 1.6 9.7 0.00 0.00 0.00 90 1019.4
20260902005803 16 72 3.2 9.7 0.00 0.00 0.00 90 1019.6
20260902005703 16 67 4.8 9.7 0.00 0.00 0.00 90 1019.4
20260902005603 16 67 3.2 9.7 0.00 0.00 0.00 90 1019.5
20260902005503 16 65 3.2 9.7 0.00 0.00 0.00 90 1019.3
20260902005403 16 65 1.6 9.7 0.00 0.00 0.00 90 1019.4
20260902005306 16 67 3.2 9.7 0.00 0.00 0.00 89 1019.5
20260902005203 16 73 3.2 9.7 0.00 0.00 0.00 89 1019.4
20260902005103 16 77 4.8 9.7 0.00 0.00 0.00 89 1019.5
20260902005003 16 89 1.6 6.4 0.00 0.00 0.00 89 1019.5
20260902004903 16 89 3.2 6.4 0.00 0.00 0.00 89 1019.3
20260902004818 16 87 1.6 6.4 0.00 0.00 0.00 89 1019.4
20260902004803 16 86 1.6 6.4 0.00 0.00 0.00 89 1019.4
20260902004703 16 82 3.2 6.4 0.00 0.00 0.00 89 1019.6
20260902004503 16 75 3.2 6.4 0.00 0.00 0.00 89 1019.7
20260902004403 16 72 3.2 6.4 0.00 0.00 0.00 89 1019.6
20260902004317 16 75 3.2 6.4 0.00 0.00 0.00 89 1019.6
20260902004303 16 78 1.6 6.4 0.00 0.00 0.00 89 1019.8
20260902004203 16 76 3.2 6.4 0.00 0.00 0.00 89 1019.6
20260902004118 16 76 1.6 6.4 0.00 0.00 0.00 89 1019.6
20260902004016 16 73 3.2 6.4 0.00 0.00 0.00 89 1019.6
20260902004003 16 69 3.2 6.4 0.00 0.00 0.00 89 1019.6
20260902003917 16 67 3.2 6.4 0.00 0.00 0.00 89 1019.7
20260902003718 16 64 3.2 6.4 0.00 0.00 0.00 89 1019.9
20260902003603 16 61 3.2 6.4 0.00 0.00 0.00 89 1019.7
20260902003418 16 65 3.2 6.4 0.00 0.00 0.00 89 1019.8
20260902003403 16 66 3.2 6.4 0.00 0.00 0.00 89 1019.8
20260902003303 16 66 3.2 6.4 0.00 0.00 0.00 89 1019.5
20260902003103 16 64 1.6 6.4 0.00 0.00 0.00 89 1019.8
20260902003003 16 63 3.2 6.4 0.00 0.00 0.00 89 1019.6
20260902002903 16 63 3.2 6.4 0.00 0.00 0.00 89 1019.6
20260902002803 16 67 4.8 6.4 0.00 0.00 0.00 88 1019.7
20260902002703 16 61 3.2 6.4 0.00 0.00 0.00 88 1019.5
20260902002603 16 67 3.2 6.4 0.00 0.00 0.00 88 1019.8
20260902002503 16 69 3.2 6.4 0.00 0.00 0.00 88 1019.5
20260902002403 16 73 3.2 6.4 0.00 0.00 0.00 88 1019.6
20260902002306 16 62 3.2 6.4 0.00 0.00 0.00 88 1019.7
20260902002203 16 73 0.0 6.4 0.00 0.00 0.00 88 1019.5
20260902002103 16 63 1.6 6.4 0.00 0.00 0.00 88 1019.7
20260902002003 16 63 1.6 6.4 0.00 0.00 0.00 88 1019.5
20260902001903 16 61 3.2 6.4 0.00 0.00 0.00 88 1019.7
20260902001818 16 65 3.2 6.4 0.00 0.00 0.00 88 1019.9
20260902001803 16 64 3.2 6.4 0.00 0.00 0.00 88 1019.9
20260902001703 16 61 3.2 6.4 0.00 0.00 0.00 88 1019.4
20260902001503 16 69 1.6 6.4 0.00 0.00 0.00 88 1019.5
20260902001403 16 67 3.2 6.4 0.00 0.00 0.00 88 1019.6
20260902001303 16 67 3.2 6.4 0.00 0.00 0.00 88 1019.6
20260902001203 16 70 3.2 6.4 0.00 0.00 0.00 87 1019.6
20260902001103 16 72 3.2 6.4 0.00 0.00 0.00 87 1019.8
20260902001003 16 82 3.2 6.4 0.00 0.00 0.00 87 1019.8
20260902000903 16 86 1.6 6.4 0.00 0.00 0.00 87 1019.6
20260902000803 16 94 1.6 6.4 0.00 0.00 0.00 87 1019.6
20260902000718 16 95 1.6 6.4 0.00 0.00 0.00 87 1019.5
20260902000703 16 95 1.6 6.4 0.00 0.00 0.00 87 1019.6
20260902000603 16 97 3.2 6.4 0.00 0.00 0.00 87 1019.6
20260902000403 16 89 1.6 6.4 0.00 0.00 0.00 87 1020.0
20260902000304 16 79 0.0 6.4 0.00 0.00 0.00 87 1019.5
20260902000204 16 82 3.2 6.4 0.00 0.00 0.00 87 1019.7
20260902000103 16 83 3.2 6.4 0.00 0.00 0.00 87 1020.0
20260902000004 16 79 3.2 6.4 0.00 0.00 0.00 87 1019.9
20260901235903 16 76 3.2 6.4 0.00 0.00 0.00 86 1019.7
20260901235803 16 79 1.6 6.4 0.00 0.00 0.00 86 1019.6
20260901235703 16 80 1.6 6.4 0.00 0.00 0.00 86 1019.4
20260901235603 16 79 3.2 6.4 0.00 0.00 0.00 86 1019.5
20260901235503 16 83 3.2 6.4 0.00 0.00 0.00 86 1019.6
20260901235403 16 88 3.2 6.4 0.00 0.00 0.00 86 1019.4
20260901235307 17 89 3.2 6.4 0.00 0.00 0.00 86 1019.5
20260901235203 17 87 3.2 6.4 0.00 0.00 0.00 86 1019.5
20260901235103 17 80 1.6 6.4 0.00 0.00 0.00 86 1019.4
20260901235003 17 78 3.2 6.4 0.00 0.00 0.00 86 1019.2
20260901234903 17 79 3.2 6.4 0.00 0.00 0.00 85 1019.5
20260901234803 17 76 3.2 6.4 0.00 0.00 0.00 85 1019.7
20260901234703 17 78 1.6 6.4 0.00 0.00 0.00 85 1019.3
20260901234603 17 84 3.2 6.4 0.00 0.00 0.00 85 1019.4
20260901234503 17 82 1.6 6.4 0.00 0.00 0.00 85 1019.3
20260901234403 17 83 3.2 6.4 0.00 0.00 0.00 85 1019.3
20260901234303 17 82 3.2 6.4 0.00 0.00 0.00 85 1019.2
20260901234203 17 81 3.2 6.4 0.00 0.00 0.00 85 1019.5
20260901234103 17 78 3.2 6.4 0.00 0.00 0.00 85 1019.5
20260901234018 17 73 3.2 6.4 0.00 0.00 0.00 85 1019.4
20260901234003 17 72 3.2 6.4 0.00 0.00 0.00 85 1019.4
20260901233903 17 73 1.6 6.4 0.00 0.00 0.00 85 1019.4
20260901233703 17 79 3.2 6.4 0.00 0.00 0.00 85 1019.4
20260901233603 17 77 3.2 6.4 0.00 0.00 0.00 85 1019.3
20260901233503 17 80 3.2 6.4 0.00 0.00 0.00 84 1019.0
20260901233403 17 79 1.6 6.4 0.00 0.00 0.00 84 1019.3
20260901233303 17 77 3.2 6.4 0.00 0.00 0.00 84 1019.5
20260901233217 17 77 3.2 6.4 0.00 0.00 0.00 84 1019.3
20260901233203 17 76 3.2 6.4 0.00 0.00 0.00 84 1019.3
20260901233117 17 76 3.2 6.4 0.00 0.00 0.00 84 1019.4
20260901233103 17 78 1.6 6.4 0.00 0.00 0.00 84 1019.3
20260901232803 17 73 3.2 6.4 0.00 0.00 0.00 84 1019.3
20260901232703 17 70 1.6 6.4 0.00 0.00 0.00 84 1019.2
20260901232603 17 78 3.2 9.7 0.00 0.00 0.00 84 1019.1
20260901232503 17 90 3.2 9.7 0.00 0.00 0.00 84 1019.6
20260901232403 17 91 1.6 9.7 0.00 0.00 0.00 84 1019.3
20260901232306 17 94 3.2 9.7 0.00 0.00 0.00 84 1019.4
20260901232203 17 92 3.2 9.7 0.00 0.00 0.00 83 1019.5
20260901232103 17 85 3.2 9.7 0.00 0.00 0.00 83 1019.3
20260901232003 17 76 3.2 6.4 0.00 0.00 0.00 83 1019.4
20260901231916 17 82 3.2 6.4 0.00 0.00 0.00 83 1019.4
20260901231903 17 83 1.6 6.4 0.00 0.00 0.00 83 1019.2
20260901231803 17 78 1.6 6.4 0.00 0.00 0.00 83 1019.1
20260901231718 17 79 3.2 6.4 0.00 0.00 0.00 83 1019.2
20260901231604 17 77 3.2 6.4 0.00 0.00 0.00 83 1019.3
20260901231517 17 79 3.2 6.4 0.00 0.00 0.00 83 1019.3
20260901231417 17 75 1.6 6.4 0.00 0.00 0.00 83 1019.4
20260901231403 17 74 1.6 6.4 0.00 0.00 0.00 83 1019.4
20260901231318 17 74 3.2 6.4 0.00 0.00 0.00 83 1019.4
20260901231117 17 74 3.2 6.4 0.00 0.00 0.00 83 1019.4
20260901231018 17 66 3.2 6.4 0.00 0.00 0.00 83 1019.2
20260901231003 17 65 3.2 6.4 0.00 0.00 0.00 83 1019.2
20260901230718 17 77 4.8 6.4 0.00 0.00 0.00 83 1019.3
20260901230707 17 78 3.2 6.4 0.00 0.00 0.00 83 1019.3
20260901230603 17 89 3.2 6.4 0.00 0.00 0.00 83 1019.3
20260901230403 17 103 3.2 6.4 0.00 0.00 0.00 82 1019.1
20260901230303 17 104 3.2 6.4 0.00 0.00 0.00 82 1019.1
20260901230218 17 108 3.2 6.4 0.00 0.00 0.00 82 1019.1
20260901230203 17 106 3.2 6.4 0.00 0.00 0.00 82 1019.1
20260901230103 17 94 3.2 6.4 0.00 0.00 0.00 82 1019.0
20260901225903 17 84 3.2 6.4 0.00 0.00 0.00 82 1019.2
20260901225817 17 81 3.2 6.4 0.00 0.00 0.00 82 1019.1
20260901225803 17 79 3.2 6.4 0.00 0.00 0.00 82 1019.1
20260901225718 17 77 3.2 6.4 0.00 0.00 0.00 82 1019.2
20260901225703 17 78 3.2 6.4 0.00 0.00 0.00 82 1019.2
20260901225403 17 92 3.2 6.4 0.00 0.00 0.00 81 1019.5
20260901225318 17 101 3.2 6.4 0.00 0.00 0.00 81 1019.3
20260901225306 17 103 3.2 6.4 0.00 0.00 0.00 81 1019.3
20260901225203 17 101 1.6 3.2 0.00 0.00 0.00 81 1019.4
20260901225117 17 104 1.6 6.4 0.00 0.00 0.00 81 1019.5
20260901225003 17 105 1.6 6.4 0.00 0.00 0.00 81 1019.4
20260901224703 17 99 3.2 6.4 0.00 0.00 0.00 80 1019.4
20260901224603 17 88 3.2 6.4 0.00 0.00 0.00 80 1019.2
20260901224503 17 82 3.2 6.4 0.00 0.00 0.00 80 1019.2
20260901224403 17 77 1.6 6.4 0.00 0.00 0.00 80 1019.2
20260901224203 17 84 0.0 9.7 0.00 0.00 0.00 80 1019.2
20260901224103 17 93 3.2 9.7 0.00 0.00 0.00 80 1019.2
20260901224003 17 97 3.2 9.7 0.00 0.00 0.00 80 1019.3
20260901223903 17 104 4.8 9.7 0.00 0.00 0.00 80 1019.0
20260901223803 17 112 3.2 6.4 0.00 0.00 0.00 80 1018.9
20260901223703 17 116 3.2 6.4 0.00 0.00 0.00 80 1019.3
20260901223603 17 113 3.2 6.4 0.00 0.00 0.00 79 1019.3
20260901223503 17 108 3.2 6.4 0.00 0.00 0.00 79 1019.2
20260901223403 17 104 3.2 6.4 0.00 0.00 0.00 79 1019.1
20260901223303 17 93 3.2 6.4 0.00 0.00 0.00 79 1019.1
20260901223206 18 85 3.2 6.4 0.00 0.00 0.00 79 1019.1
20260901223103 18 75 3.2 6.4 0.00 0.00 0.00 79 1019.1
20260901223003 18 79 3.2 6.4 0.00 0.00 0.00 79 1019.1
20260901222903 18 83 3.2 6.4 0.00 0.00 0.00 79 1018.9
20260901222803 18 73 3.2 6.4 0.00 0.00 0.00 78 1019.2
20260901222703 18 62 3.2 6.4 0.00 0.00 0.00 78 1019.0
20260901222603 18 69 3.2 6.4 0.00 0.00 0.00 78 1019.0
20260901222516 18 57 1.6 6.4 0.00 0.00 0.00 78 1019.1
20260901222503 18 56 1.6 6.4 0.00 0.00 0.00 78 1019.1
20260901222403 18 55 3.2 6.4 0.00 0.00 0.00 78 1019.2
20260901222203 18 80 3.2 6.4 0.00 0.00 0.00 77 1019.0
20260901222103 18 79 3.2 6.4 0.00 0.00 0.00 77 1018.6
20260901222003 18 84 1.6 6.4 0.00 0.00 0.00 77 1019.1
20260901221918 18 86 3.2 6.4 0.00 0.00 0.00 77 1019.0
20260901221903 18 84 3.2 6.4 0.00 0.00 0.00 77 1018.8
20260901221803 18 76 1.6 6.4 0.00 0.00 0.00 77 1018.7
20260901221603 18 80 3.2 6.4 0.00 0.00 0.00 76 1018.8
20260901221516 18 93 3.2 9.7 0.00 0.00 0.00 76 1018.9
20260901221503 18 93 3.2 9.7 0.00 0.00 0.00 76 1019.0
20260901221403 18 91 3.2 9.7 0.00 0.00 0.00 76 1018.9
20260901221203 18 92 3.2 11.3 0.00 0.00 0.00 76 1018.8
20260901221103 18 84 4.8 11.3 0.00 0.00 0.00 75 1018.9
20260901221003 18 77 3.2 11.3 0.00 0.00 0.00 75 1018.8
20260901220903 18 75 4.8 11.3 0.00 0.00 0.00 75 1018.9
20260901220817 18 82 6.4 11.3 0.00 0.00 0.00 75 1019.0
20260901220803 18 86 6.4 11.3 0.00 0.00 0.00 75 1019.0
20260901220703 18 84 4.8 11.3 0.00 0.00 0.00 75 1018.9
20260901220503 18 74 4.8 11.3 0.00 0.00 0.00 74 1018.9
20260901220417 18 76 6.4 11.3 0.00 0.00 0.00 74 1018.8
20260901220403 18 77 6.4 11.3 0.00 0.00 0.00 74 1018.8
20260901220303 18 70 6.4 11.3 0.00 0.00 0.00 74 1019.0
20260901220218 18 73 6.4 11.3 0.00 0.00 0.00 74 1018.9
20260901220103 18 75 4.8 9.7 0.00 0.00 0.00 73 1019.0
20260901215903 18 65 3.2 9.7 0.00 0.00 0.00 73 1019.0
20260901215817 18 63 4.8 9.7 0.00 0.00 0.00 73 1019.1
20260901215803 18 62 4.8 9.7 0.00 0.00 0.00 73 1019.1
20260901215703 18 56 3.2 9.7 0.00 0.00 0.00 72 1019.0
20260901215503 19 55 3.2 6.4 0.00 0.00 0.00 72 1019.1
20260901215403 19 39 3.2 6.4 0.00 0.00 0.00 72 1019.1
20260901215306 19 35 3.2 6.4 0.00 0.00 0.00 72 1019.1
20260901215203 19 37 1.6 6.4 0.00 0.00 0.00 72 1018.9
20260901215103 19 51 1.6 6.4 0.00 0.00 0.00 71 1019.0
20260901215017 19 58 1.6 6.4 0.00 0.00 0.00 71 1019.0
20260901215003 19 59 1.6 6.4 0.00 0.00 0.00 71 1019.0
20260901214903 19 62 1.6 6.4 0.00 0.00 0.00 71 1019.0
20260901214717 19 59 3.2 6.4 0.00 0.00 0.00 71 1018.9
20260901214703 19 60 3.2 6.4 0.00 0.00 0.00 71 1019.2
20260901214603 19 55 3.2 6.4 0.00 0.00 0.00 70 1019.1
20260901214403 19 57 1.6 6.4 0.00 0.00 0.00 70 1019.1
20260901214303 19 58 3.2 6.4 0.00 0.00 0.00 70 1019.3
20260901214203 19 60 3.2 6.4 0.00 0.00 0.00 70 1019.1
20260901214103 19 51 3.2 6.4 0.00 0.00 0.00 70 1019.0
20260901214003 19 55 3.2 6.4 0.00 0.00 0.00 70 1019.1
20260901213903 20 66 3.2 6.4 0.00 0.00 0.00 71 1019.2
20260901213803 20 72 1.6 6.4 0.00 0.00 0.00 71 1019.0
20260901213703 20 76 1.6 6.4 0.00 0.00 0.00 71 1019.2
20260901213603 20 73 1.6 6.4 0.00 0.00 0.00 71 1019.4
20260901213518 20 59 3.2 6.4 0.00 0.00 0.00 71 1019.2
20260901213503 20 56 3.2 6.4 0.00 0.00 0.00 71 1019.1
20260901213403 20 48 0.0 6.4 0.00 0.00 0.00 72 1019.3
20260901213203 20 45 3.2 6.4 0.00 0.00 0.00 71 1019.1
20260901213117 20 41 4.8 6.4 0.00 0.00 0.00 71 1019.1
20260901213103 20 37 1.6 6.4 0.00 0.00 0.00 72 1019.1
20260901213017 20 39 3.2 6.4 0.00 0.00 0.00 72 1019.3
20260901213003 20 38 3.2 6.4 0.00 0.00 0.00 72 1019.3
20260901212816 20 32 1.6 9.7 0.00 0.00 0.00 72 1019.2
20260901212703 20 21 1.6 11.3 0.00 0.00 0.00 72 1019.2
20260901212503 20 27 1.6 11.3 0.00 0.00 0.00 72 1019.1
20260901212403 20 22 3.2 11.3 0.00 0.00 0.00 73 1019.1
20260901212306 20 25 3.2 11.3 0.00 0.00 0.00 72 1019.1
20260901212205 20 21 6.4 11.3 0.00 0.00 0.00 72 1019.1
20260901212117 20 19 3.2 9.7 0.00 0.00 0.00 72 1019.2
20260901212103 20 23 3.2 9.7 0.00 0.00 0.00 72 1019.2
20260901212003 20 29 3.2 6.4 0.00 0.00 0.00 72 1019.2
20260901211803 20 23 3.2 11.3 0.00 0.00 0.00 72 1019.0
20260901211703 20 24 3.2 11.3 0.00 0.00 0.00 72 1019.0
20260901211603 20 16 4.8 11.3 0.00 0.00 0.00 72 1019.1
20260901211518 20 15 3.2 11.3 0.00 0.00 0.00 72 1019.0
20260901211503 20 13 6.4 11.3 0.00 0.00 0.00 72 1019.1
20260901211403 20 16 1.6 6.4 0.00 0.00 0.00 71 1018.9
20260901211203 20 11 1.6 6.4 0.00 0.00 0.00 72 1019.1
20260901211103 20 20 3.2 6.4 0.00 0.00 0.00 71 1019.1
20260901211003 20 15 3.2 6.4 0.00 0.00 0.00 71 1019.0
20260901210903 20 22 3.2 6.4 0.00 0.00 0.00 71 1019.2
20260901210803 21 11 1.6 6.4 0.00 0.00 0.00 71 1019.2
20260901210703 20 26 3.2 6.4 0.00 0.00 0.00 71 1019.0
20260901210603 21 40 3.2 9.7 0.00 0.00 0.00 71 1019.1
20260901210518 21 52 1.6 11.3 0.00 0.00 0.00 71 1019.0
20260901210503 21 55 1.6 11.3 0.00 0.00 0.00 71 1019.0
20260901210403 21 59 1.6 11.3 0.00 0.00 0.00 71 1019.1
20260901210203 21 80 4.8 11.3 0.00 0.00 0.00 71 1019.1
20260901210003 21 75 6.4 11.3 0.00 0.00 0.00 70 1019.1
20260901205918 21 57 4.8 12.9 0.00 0.00 0.00 70 1019.0
20260901205903 21 49 3.2 12.9 0.00 0.00 0.00 70 1018.9
20260901205803 21 17 6.4 12.9 0.00 0.00 0.00 69 1018.9
20260901205603 21 9 6.4 12.9 0.00 0.00 0.00 69 1019.1
20260901205503 21 16 6.4 12.9 0.00 0.00 0.00 69 1019.0
20260901205403 21 37 6.4 12.9 0.00 0.00 0.00 69 1019.2
20260901205306 21 47 6.4 12.9 0.00 0.00 0.00 69 1018.9
20260901205203 21 56 1.6 9.7 0.00 0.00 0.00 69 1018.9
20260901205103 21 66 4.8 9.7 0.00 0.00 0.00 69 1019.3
20260901205003 21 73 3.2 9.7 0.00 0.00 0.00 69 1018.8
20260901204903 21 82 4.8 9.7 0.00 0.00 0.00 68 1018.9
20260901204803 21 95 4.8 9.7 0.00 0.00 0.00 68 1019.2
20260901204703 21 104 4.8 9.7 0.00 0.00 0.00 68 1019.3
20260901204617 21 95 4.8 9.7 0.00 0.00 0.00 68 1019.1
20260901204603 21 92 4.8 9.7 0.00 0.00 0.00 68 1019.1
20260901204503 21 87 4.8 6.4 0.00 0.00 0.00 68 1019.1
20260901204303 21 81 3.2 6.4 0.00 0.00 0.00 69 1019.0
20260901204203 21 66 3.2 6.4 0.00 0.00 0.00 69 1019.1
20260901204103 21 56 1.6 11.3 0.00 0.00 0.00 69 1019.1
20260901204003 21 41 4.8 11.3 0.00 0.00 0.00 69 1019.0
20260901203903 21 29 3.2 11.3 0.00 0.00 0.00 70 1019.1
20260901203803 21 18 3.2 11.3 0.00 0.00 0.00 71 1019.0
20260901203703 21 14 4.8 11.3 0.00 0.00 0.00 70 1019.0
20260901203603 21 20 6.4 11.3 0.00 0.00 0.00 70 1019.0
20260901203505 21 29 4.8 9.7 0.00 0.00 0.00 69 1019.0
20260901203403 21 27 3.2 11.3 0.00 0.00 0.00 70 1019.2
20260901203303 21 22 3.2 11.3 0.00 0.00 0.00 70 1018.9
20260901203203 21 22 6.4 11.3 0.00 0.00 0.00 70 1018.8
20260901203118 21 21 3.2 11.3 0.00 0.00 0.00 70 1019.1
20260901203103 21 20 1.6 11.3 0.00 0.00 0.00 70 1018.8
20260901203003 21 19 3.2 11.3 0.00 0.00 0.00 70 1018.9
20260901202803 21 53 3.2 9.7 0.00 0.00 0.00 69 1018.9
20260901202703 21 49 4.8 9.7 0.00 0.00 0.00 68 1018.9
20260901202603 21 39 3.2 9.7 0.00 0.00 0.00 68 1018.9
20260901202503 21 32 3.2 9.7 0.00 0.00 0.00 67 1018.9
20260901202416 22 14 3.2 9.7 0.00 0.00 0.00 67 1018.9
20260901202403 22 357 3.2 9.7 0.00 0.00 0.00 67 1018.9
20260901202306 22 323 3.2 6.4 0.00 0.00 0.00 67 1018.8
20260901202218 22 318 3.2 6.4 0.00 0.00 0.00 67 1018.7
20260901202103 22 313 0.0 6.4 0.00 0.00 0.00 67 1019.2
20260901202017 22 321 1.6 6.4 0.00 0.00 0.00 67 1019.1
20260901201917 21 340 3.2 6.4 0.00 0.00 0.00 67 1019.0
20260901201903 22 347 3.2 6.4 0.00 0.00 0.00 67 1019.0
20260901201603 22 64 3.2 9.7 0.00 0.00 0.00 65 1018.9
20260901201503 22 70 3.2 9.7 0.00 0.00 0.00 65 1019.0
20260901201403 22 75 3.2 9.7 0.00 0.00 0.00 65 1018.7
20260901201303 22 49 4.8 9.7 0.00 0.00 0.00 65 1018.9
20260901201203 22 31 4.8 9.7 0.00 0.00 0.00 65 1019.0
20260901201103 22 14 3.2 6.4 0.00 0.00 0.00 65 1019.0
20260901201003 22 356 1.6 6.4 0.00 0.00 0.00 66 1019.1
20260901200903 22 356 1.6 6.4 0.00 0.00 0.00 67 1019.2
20260901200803 22 348 3.2 6.4 0.00 0.00 0.00 66 1018.9
20260901200707 22 354 3.2 9.7 0.00 0.00 0.00 68 1018.9
20260901200603 21 351 1.6 9.7 0.00 0.00 0.00 68 1019.0
20260901200503 21 346 1.6 9.7 0.00 0.00 0.00 68 1019.0
20260901200403 21 346 3.2 9.7 0.00 0.00 0.00 69 1019.0
20260901200303 21 356 6.4 9.7 0.00 0.00 0.00 68 1018.9
20260901200203 21 351 3.2 9.7 0.00 0.00 0.00 68 1019.1
20260901200003 21 358 3.2 9.7 0.00 0.00 0.00 66 1018.8
20260901195903 21 356 3.2 9.7 0.00 0.00 0.00 66 1019.1
20260901195803 21 357 3.2 9.7 0.00 0.00 0.00 66 1019.1
20260901195703 22 9 3.2 6.4 0.00 0.00 0.00 66 1019.0
20260901195603 21 22 3.2 6.4 0.00 0.00 0.00 66 1019.0
20260901195518 21 38 6.4 6.4 0.00 0.00 0.00 65 1019.1
20260901195508 22 47 3.2 3.2 0.00 0.00 0.00 64 1019.0
20260901195403 22 66 3.2 3.2 0.00 0.00 0.00 63 1019.1
20260901195203 23 67 0.0 6.4 0.00 0.00 0.00 63 1019.0
20260901195118 23 67 1.6 6.4 0.00 0.00 0.00 62 1019.1
20260901195103 23 68 1.6 6.4 0.00 0.00 0.00 63 1019.2
20260901195003 22 70 1.6 6.4 0.00 0.00 0.00 64 1019.2
20260901194803 22 76 1.6 6.4 0.00 0.00 0.00 65 1019.3
20260901194703 22 86 3.2 6.4 0.00 0.00 0.00 64 1019.2
20260901194603 22 87 0.0 6.4 0.00 0.00 0.00 64 1019.0
20260901194503 22 81 0.0 6.4 0.00 0.00 0.00 64 1019.1
20260901194403 22 79 1.6 6.4 0.00 0.00 0.00 65 1019.0
20260901194304 22 54 3.2 6.4 0.00 0.00 0.00 64 1019.3
20260901194203 22 27 3.2 6.4 0.00 0.00 0.00 65 1019.0
20260901194104 22 21 3.2 6.4 0.00 0.00 0.00 65 1019.3
20260901194003 22 15 3.2 6.4 0.00 0.00 0.00 65 1019.2
20260901193903 22 10 3.2 6.4 0.00 0.00 0.00 64 1019.1
20260901193803 22 32 4.8 6.4 0.00 0.00 0.00 63 1019.1
20260901193718 23 58 3.2 6.4 0.00 0.00 0.00 61 1019.0
20260901193703 23 64 3.2 6.4 0.00 0.00 0.00 61 1019.0
20260901193603 23 70 0.0 6.4 0.00 0.00 0.00 61 1019.0
20260901193418 23 42 0.0 6.4 0.00 0.00 0.00 63 1019.0
20260901193303 23 29 1.6 6.4 0.00 0.00 0.00 64 1019.1
20260901193103 22 14 3.2 6.4 0.00 0.00 0.00 66 1019.2
20260901193003 22 25 3.2 6.4 0.00 0.00 0.00 66 1019.1
20260901192903 22 30 3.2 6.4 0.00 0.00 0.00 66 1019.2
20260901192803 22 35 3.2 6.4 0.00 0.00 0.00 66 1019.1
20260901192718 22 22 3.2 6.4 0.00 0.00 0.00 67 1019.1
20260901192703 22 25 3.2 6.4 0.00 0.00 0.00 67 1018.9
20260901192617 22 16 1.6 6.4 0.00 0.00 0.00 68 1018.9
20260901192603 22 13 1.6 6.4 0.00 0.00 0.00 68 1018.9
20260901192316 21 11 3.2 6.4 0.00 0.00 0.00 68 1019.3
20260901192306 21 12 4.8 6.4 0.00 0.00 0.00 68 1019.2
20260901192203 21 26 3.2 6.4 0.00 0.00 0.00 68 1019.1
20260901192003 21 41 3.2 9.7 0.00 0.00 0.00 69 1019.2
20260901191903 21 33 3.2 9.7 0.00 0.00 0.00 69 1019.2
20260901191818 21 46 3.2 9.7 0.00 0.00 0.00 69 1019.0
20260901191803 21 48 3.2 9.7 0.00 0.00 0.00 69 1019.0
20260901191703 21 56 3.2 9.7 0.00 0.00 0.00 68 1019.2
20260901191503 22 63 3.2 6.4 0.00 0.00 0.00 66 1019.1
20260901191403 22 85 4.8 6.4 0.00 0.00 0.00 65 1019.2
20260901191303 23 117 3.2 6.4 0.00 0.00 0.00 64 1019.2
20260901191203 23 215 1.6 6.4 0.00 0.00 0.00 64 1019.1
20260901191103 23 240 0.0 3.2 0.00 0.00 0.00 65 1019.0
20260901191018 22 237 0.0 3.2 0.00 0.00 0.00 66 1018.9
20260901191003 22 236 0.0 3.2 0.00 0.00 0.00 66 1018.9
20260901190903 22 323 1.6 6.4 0.00 0.00 0.00 64 1018.9
20260901190718 23 54 0.0 6.4 0.00 0.00 0.00 64 1019.0
20260901190703 23 57 0.0 6.4 0.00 0.00 0.00 65 1019.2
20260901190603 22 63 0.0 6.4 0.00 0.00 0.00 65 1019.0
20260901190418 22 45 3.2 6.4 0.00 0.00 0.00 66 1019.0
20260901190403 22 48 3.2 6.4 0.00 0.00 0.00 66 1019.0
20260901190303 22 23 3.2 6.4 0.00 0.00 0.00 67 1019.0
20260901190003 22 351 3.2 6.4 0.00 0.00 0.00 67 1019.0
20260901185817 21 338 3.2 6.4 0.00 0.00 0.00 68 1019.2
20260901185803 21 339 3.2 6.4 0.00 0.00 0.00 68 1019.2
20260901185703 21 334 3.2 6.4 0.00 0.00 0.00 68 1018.9
20260901185503 22 312 1.6 6.4 0.00 0.00 0.00 68 1019.1
20260901185403 21 317 4.8 6.4 0.00 0.00 0.00 67 1019.1
20260901185316 22 324 3.2 6.4 0.00 0.00 0.00 66 1019.0
20260901185305 22 326 3.2 6.4 0.00 0.00 0.00 66 1019.0
20260901185203 22 343 3.2 6.4 0.00 0.00 0.00 67 1019.4
20260901185118 22 357 3.2 6.4 0.00 0.00 0.00 67 1019.1
20260901185003 22 3 3.2 11.3 0.00 0.00 0.00 67 1019.1
20260901184917 22 2 3.2 11.3 0.00 0.00 0.00 67 1019.1
20260901184803 22 346 3.2 11.3 0.00 0.00 0.00 68 1019.1
20260901184603 21 338 3.2 11.3 0.00 0.00 0.00 67 1019.1
20260901184503 21 343 6.4 11.3 0.00 0.00 0.00 67 1019.1
20260901184403 21 358 6.4 9.7 0.00 0.00 0.00 66 1019.1
20260901184303 22 24 1.6 9.7 0.00 0.00 0.00 67 1019.0
20260901184203 21 15 3.2 9.7 0.00 0.00 0.00 67 1019.1
20260901184103 21 21 4.8 9.7 0.00 0.00 0.00 67 1019.0
20260901184003 22 7 3.2 9.7 0.00 0.00 0.00 67 1019.1
20260901183903 21 355 4.8 9.7 0.00 0.00 0.00 67 1019.1
20260901183803 21 348 4.8 9.7 0.00 0.00 0.00 66 1018.9
20260901183703 22 12 3.2 9.7 0.00 0.00 0.00 66 1019.0
20260901183603 22 31 3.2 9.7 0.00 0.00 0.00 66 1018.9
20260901183517 22 63 3.2 9.7 0.00 0.00 0.00 66 1019.0
20260901183503 22 76 3.2 9.7 0.00 0.00 0.00 66 1018.9
20260901183403 22 109 3.2 9.7 0.00 0.00 0.00 65 1018.9
20260901183318 22 115 4.8 6.4 0.00 0.00 0.00 65 1018.8
20260901183203 22 108 4.8 6.4 0.00 0.00 0.00 65 1019.0
20260901183003 22 28 1.6 6.4 0.00 0.00 0.00 65 1019.2
20260901182903 22 6 3.2 11.3 0.00 0.00 0.00 66 1019.0
20260901182803 22 3 3.2 11.3 0.00 0.00 0.00 66 1019.2
20260901182703 21 352 3.2 11.3 0.00 0.00 0.00 67 1019.2
20260901182603 21 350 3.2 11.3 0.00 0.00 0.00 67 1019.1
20260901182503 21 337 4.8 11.3 0.00 0.00 0.00 67 1019.1
20260901182403 21 339 6.4 11.3 0.00 0.00 0.00 67 1019.1
20260901182305 21 275 4.8 9.7 0.00 0.00 0.00 65 1019.4
20260901182217 22 207 3.2 9.7 0.00 0.00 0.00 64 1019.1
20260901182203 22 204 3.2 9.7 0.00 0.00 0.00 64 1019.1
20260901182103 22 211 1.6 9.7 0.00 0.00 0.00 64 1019.3
20260901181903 22 217 3.2 9.7 0.00 0.00 0.00 63 1019.0
20260901181803 22 226 4.8 9.7 0.00 0.00 0.00 62 1019.1
20260901181703 23 342 3.2 9.7 0.00 0.00 0.00 63 1019.0
20260901181603 23 36 3.2 6.4 0.00 0.00 0.00 63 1019.0
20260901181503 22 22 0.0 6.4 0.00 0.00 0.00 64 1019.3
20260901181403 22 19 1.6 6.4 0.00 0.00 0.00 65 1019.1
20260901181303 22 11 0.0 6.4 0.00 0.00 0.00 65 1019.3
20260901181217 22 11 3.2 6.4 0.00 0.00 0.00 65 1019.1
20260901181203 22 13 3.2 6.4 0.00 0.00 0.00 65 1019.1
20260901181117 22 15 3.2 6.4 0.00 0.00 0.00 64 1019.4
20260901181103 22 14 3.2 6.4 0.00 0.00 0.00 64 1019.3
20260901180803 23 28 0.0 6.4 0.00 0.00 0.00 62 1019.1
20260901180718 23 27 0.0 6.4 0.00 0.00 0.00 63 1019.1
20260901180703 22 27 3.2 6.4 0.00 0.00 0.00 63 1019.2
20260901180603 22 20 3.2 6.4 0.00 0.00 0.00 63 1019.4
20260901180405 22 360 1.6 6.4 0.00 0.00 0.00 64 1019.3
20260901180303 22 4 1.6 6.4 0.00 0.00 0.00 64 1019.2
20260901180203 22 337 1.6 6.4 0.00 0.00 0.00 65 1019.3
20260901180103 22 323 1.6 6.4 0.00 0.00 0.00 65 1019.1
20260901180003 21 323 0.0 6.4 0.00 0.00 0.00 65 1019.4
20260901175903 21 324 1.6 6.4 0.00 0.00 0.00 66 1019.3
20260901175817 21 328 3.2 6.4 0.00 0.00 0.00 66 1019.3
20260901175803 21 332 3.2 6.4 0.00 0.00 0.00 66 1019.3
20260901175704 21 337 3.2 6.4 0.00 0.00 0.00 66 1019.4
20260901175503 21 330 3.2 9.7 0.00 0.00 0.00 65 1019.3
20260901175403 21 327 3.2 9.7 0.00 0.00 0.00 65 1019.5
20260901175305 21 323 3.2 9.7 0.00 0.00 0.00 66 1019.4
20260901175205 21 323 6.4 9.7 0.00 0.00 0.00 66 1019.4
20260901175103 21 3 4.8 9.7 0.00 0.00 0.00 64 1019.4
20260901175003 21 68 4.8 6.4 0.00 0.00 0.00 63 1019.6
20260901174918 22 94 1.6 6.4 0.00 0.00 0.00 62 1019.7
20260901174903 22 101 1.6 6.4 0.00 0.00 0.00 62 1019.7
20260901174803 22 91 0.0 6.4 0.00 0.00 0.00 63 1019.6
20260901174603 23 40 1.6 6.4 0.00 0.00 0.00 61 1019.6
20260901174503 22 351 0.0 6.4 0.00 0.00 0.00 62 1019.7
20260901174403 22 351 1.6 6.4 0.00 0.00 0.00 62 1019.6
20260901174303 22 2 0.0 6.4 0.00 0.00 0.00 64 1019.5
20260901174203 22 15 0.0 6.4 0.00 0.00 0.00 65 1019.4
20260901174103 21 32 3.2 6.4 0.00 0.00 0.00 65 1019.8
20260901174003 21 54 4.8 6.4 0.00 0.00 0.00 64 1019.8
20260901173903 22 89 1.6 6.4 0.00 0.00 0.00 62 1019.7
20260901173803 22 89 1.6 6.4 0.00 0.00 0.00 62 1019.8
20260901173718 22 81 3.2 6.4 0.00 0.00 0.00 62 1019.8
20260901173703 22 66 3.2 6.4 0.00 0.00 0.00 62 1019.8
20260901173618 22 21 1.6 3.2 0.00 0.00 0.00 62 1019.5
20260901173303 22 345 0.0 9.7 0.00 0.00 0.00 64 1019.8
20260901173203 22 4 0.0 9.7 0.00 0.00 0.00 65 1019.9
20260901173117 21 12 1.6 9.7 0.00 0.00 0.00 65 1019.7
20260901173103 21 9 1.6 9.7 0.00 0.00 0.00 66 1019.9
20260901173003 21 352 4.8 9.7 0.00 0.00 0.00 65 1019.8
20260901172803 21 88 3.2 6.4 0.00 0.00 0.00 65 1019.8
20260901172703 21 137 1.6 6.4 0.00 0.00 0.00 66 1019.9
20260901172603 21 127 3.2 6.4 0.00 0.00 0.00 65 1020.1
20260901172503 21 68 1.6 6.4 0.00 0.00 0.00 63 1019.9
20260901172403 22 62 3.2 6.4 0.00 0.00 0.00 64 1020.0
20260901172305 22 38 1.6 6.4 0.00 0.00 0.00 65 1019.7
20260901172203 22 33 1.6 11.3 0.00 0.00 0.00 66 1020.0
20260901172103 21 30 1.6 11.3 0.00 0.00 0.00 68 1020.0
20260901172003 21 27 3.2 11.3 0.00 0.00 0.00 68 1019.9
20260901171903 21 18 3.2 11.3 0.00 0.00 0.00 67 1019.9
20260901171803 21 30 3.2 11.3 0.00 0.00 0.00 67 1019.8
20260901171703 21 20 6.4 11.3 0.00 0.00 0.00 64 1019.8
20260901171618 22 20 3.2 11.3 0.00 0.00 0.00 64 1019.6
20260901171603 22 23 3.2 11.3 0.00 0.00 0.00 64 1019.6
20260901171503 22 28 1.6 6.4 0.00 0.00 0.00 63 1019.7
20260901171303 22 16 3.2 6.4 0.00 0.00 0.00 65 1019.8
20260901171203 22 31 0.0 6.4 0.00 0.00 0.00 67 1020.0
20260901171103 21 36 3.2 6.4 0.00 0.00 0.00 68 1019.9
20260901171003 21 34 0.0 6.4 0.00 0.00 0.00 69 1020.0
20260901170903 20 38 1.6 6.4 0.00 0.00 0.00 69 1020.0
20260901170803 20 40 3.2 6.4 0.00 0.00 0.00 69 1020.0
20260901170703 21 51 3.2 6.4 0.00 0.00 0.00 69 1019.9
20260901170603 21 61 3.2 6.4 0.00 0.00 0.00 68 1020.2
20260901170503 21 92 3.2 6.4 0.00 0.00 0.00 68 1020.0
20260901170417 21 90 3.2 6.4 0.00 0.00 0.00 68 1020.2
20260901170403 21 89 3.2 6.4 0.00 0.00 0.00 68 1020.2
20260901170303 21 120 3.2 6.4 0.00 0.00 0.00 68 1019.9
20260901170003 21 63 3.2 6.4 0.00 0.00 0.00 67 1020.0
20260901165918 21 88 3.2 6.4 0.00 0.00 0.00 65 1020.3
20260901165903 22 90 3.2 6.4 0.00 0.00 0.00 66 1020.0
20260901165803 22 79 3.2 6.4 0.00 0.00 0.00 66 1020.2
20260901165603 21 94 3.2 6.4 0.00 0.00 0.00 67 1020.3
20260901165503 21 99 3.2 9.7 0.00 0.00 0.00 67 1020.4
20260901165417 21 100 3.2 11.3 0.00 0.00 0.00 67 1020.3
20260901165403 21 99 3.2 11.3 0.00 0.00 0.00 67 1020.3
20260901165318 21 99 4.8 11.3 0.00 0.00 0.00 65 1020.6
20260901165306 21 95 4.8 11.3 0.00 0.00 0.00 65 1020.6
20260901165218 21 94 3.2 11.3 0.00 0.00 0.00 66 1020.3
20260901164903 21 82 4.8 11.3 0.00 0.00 0.00 67 1020.3
20260901164805 21 58 3.2 9.7 0.00 0.00 0.00 66 1020.3
20260901164703 21 342 3.2 6.4 0.00 0.00 0.00 67 1020.1
20260901164603 21 61 1.6 6.4 0.00 0.00 0.00 68 1020.4
20260901164503 21 76 0.0 6.4 0.00 0.00 0.00 70 1020.3
20260901164403 21 100 1.6 9.7 0.00 0.00 0.00 70 1020.4
20260901164303 20 106 3.2 9.7 0.00 0.00 0.00 70 1020.4
20260901164218 20 99 4.8 9.7 0.00 0.00 0.00 69 1020.7
20260901164203 20 100 4.8 9.7 0.00 0.00 0.00 69 1020.7
20260901164119 21 107 3.2 9.7 0.00 0.00 0.00 69 1020.5
20260901164103 21 110 3.2 9.7 0.00 0.00 0.00 69 1020.5
20260901164018 21 106 3.2 9.7 0.00 0.00 0.00 69 1020.4
20260901163717 21 118 1.6 9.7 0.00 0.00 0.00 68 1020.5
20260901163703 21 125 1.6 9.7 0.00 0.00 0.00 68 1020.5
20260901163618 21 133 1.6 9.7 0.00 0.00 0.00 69 1020.6
20260901163603 21 138 1.6 9.7 0.00 0.00 0.00 69 1020.6
20260901163303 20 89 4.8 9.7 0.00 0.00 0.00 69 1020.6
20260901163203 21 88 3.2 6.4 0.00 0.00 0.00 70 1020.7
20260901163117 20 81 3.2 6.4 0.00 0.00 0.00 71 1020.4
20260901163105 20 74 3.2 11.3 0.00 0.00 0.00 70 1020.6
20260901163017 20 72 3.2 11.3 0.00 0.00 0.00 70 1020.5
20260901163003 20 74 3.2 11.3 0.00 0.00 0.00 70 1020.5
20260901162704 20 75 3.2 11.3 0.00 0.00 0.00 71 1020.8
20260901162618 20 75 6.4 11.3 0.00 0.00 0.00 70 1020.6
20260901162603 20 81 6.4 11.3 0.00 0.00 0.00 70 1020.6
20260901162503 20 96 3.2 6.4 0.00 0.00 0.00 70 1020.8
20260901162306 20 103 3.2 12.9 0.00 0.00 0.00 70 1020.7
20260901162203 20 92 3.2 12.9 0.00 0.00 0.00 70 1020.8
20260901162105 20 87 3.2 12.9 0.00 0.00 0.00 70 1020.7
20260901162003 20 81 1.6 12.9 0.00 0.00 0.00 70 1020.7
20260901161905 20 63 8.0 12.9 0.00 0.00 0.00 70 1020.8
20260901161803 20 49 3.2 6.4 0.00 0.00 0.00 71 1020.7
20260901161703 20 76 3.2 6.4 0.00 0.00 0.00 70 1020.5
20260901161603 20 81 3.2 6.4 0.00 0.00 0.00 70 1020.6
20260901161503 20 81 3.2 6.4 0.00 0.00 0.00 70 1020.8
20260901161403 21 90 3.2 6.4 0.00 0.00 0.00 68 1020.8
20260901161303 21 81 3.2 6.4 0.00 0.00 0.00 68 1020.8
20260901161203 21 86 3.2 6.4 0.00 0.00 0.00 69 1020.6
20260901161103 21 96 1.6 9.7 0.00 0.00 0.00 70 1020.8
20260901161003 20 98 3.2 9.7 0.00 0.00 0.00 69 1020.6
20260901160903 20 95 1.6 9.7 0.00 0.00 0.00 70 1020.9
20260901160818 20 101 3.2 9.7 0.00 0.00 0.00 70 1020.8
20260901160803 20 105 3.2 9.7 0.00 0.00 0.00 70 1020.8
20260901160703 21 101 3.2 9.7 0.00 0.00 0.00 70 1020.7
20260901160618 20 100 3.2 9.7 0.00 0.00 0.00 70 1020.8
20260901160503 20 109 3.2 11.3 0.00 0.00 0.00 70 1020.7
20260901160303 20 101 3.2 12.9 0.00 0.00 0.00 71 1020.9
20260901160203 20 98 3.2 12.9 0.00 0.00 0.00 71 1020.6
20260901160013 20 89 6.4 12.9 0.00 0.00 0.00 71 1020.9
20260901155903 20 78 4.8 12.9 0.00 0.00 0.00 71 1020.7
20260901155803 20 84 6.4 12.9 0.00 0.00 0.00 71 1020.6
20260901155703 20 77 3.2 9.7 0.00 0.00 0.00 71 1020.6
20260901155618 20 81 3.2 9.7 0.00 0.00 0.00 71 1020.8
20260901155603 20 82 3.2 9.7 0.00 0.00 0.00 71 1020.8
20260901155503 20 73 3.2 11.3 0.00 0.00 0.00 71 1020.7
20260901155419 20 82 3.2 11.3 0.00 0.00 0.00 70 1020.8
20260901155306 20 162 4.8 11.3 0.00 0.00 0.00 70 1020.6
20260901155218 20 182 3.2 11.3 0.00 0.00 0.00 70 1020.8
20260901155103 20 174 4.8 11.3 0.00 0.00 0.00 71 1020.7
20260901155017 20 144 6.4 11.3 0.00 0.00 0.00 69 1020.9
20260901154903 20 160 4.8 9.7 0.00 0.00 0.00 69 1020.8
20260901154717 20 94 3.2 11.3 0.00 0.00 0.00 71 1020.9
20260901154703 20 89 3.2 11.3 0.00 0.00 0.00 71 1020.8
20260901154603 20 83 1.6 11.3 0.00 0.00 0.00 72 1021.0
20260901154518 20 89 3.2 11.3 0.00 0.00 0.00 72 1020.9
20260901154403 20 98 3.2 11.3 0.00 0.00 0.00 72 1021.0
20260901154317 20 99 6.4 11.3 0.00 0.00 0.00 71 1020.9
20260901154218 20 99 3.2 11.3 0.00 0.00 0.00 71 1021.1
20260901154203 20 98 3.2 11.3 0.00 0.00 0.00 71 1021.1
20260901153903 19 78 3.2 14.5 0.00 0.00 0.00 72 1021.1
20260901153803 20 78 3.2 14.5 0.00 0.00 0.00 73 1021.0
20260901153703 19 80 3.2 14.5 0.00 0.00 0.00 73 1021.0
20260901153606 19 81 3.2 14.5 0.00 0.00 0.00 73 1021.0
20260901153505 19 79 4.8 14.5 0.00 0.00 0.00 74 1021.1
20260901153403 18 74 9.7 14.5 0.00 0.00 0.00 73 1021.1
20260901153303 19 70 4.8 11.3 0.00 0.00 0.00 72 1021.1
20260901153203 19 69 3.2 11.3 0.00 0.00 0.00 72 1021.4
20260901153103 19 78 3.2 11.3 0.00 0.00 0.00 73 1021.3
20260901153003 19 78 4.8 11.3 0.00 0.00 0.00 73 1021.4
20260901152903 19 75 4.8 12.9 0.00 0.00 0.00 73 1021.3
20260901152803 19 67 4.8 12.9 0.00 0.00 0.00 73 1021.3
20260901152717 18 59 1.6 12.9 0.00 0.00 0.00 74 1021.6
20260901152703 18 60 6.4 12.9 0.00 0.00 0.00 74 1021.5
20260901152603 18 57 3.2 12.9 0.00 0.00 0.00 73 1021.5
20260901152403 18 77 6.4 12.9 0.00 0.00 0.00 73 1021.4
20260901152305 18 89 4.8 9.7 0.00 0.00 0.00 72 1021.5
20260901152203 19 96 3.2 9.7 0.00 0.00 0.00 72 1021.6
20260901152103 19 81 3.2 9.7 0.00 0.00 0.00 72 1021.7
20260901152003 19 57 4.8 9.7 0.00 0.00 0.00 71 1021.7
20260901151903 19 46 3.2 9.7 0.00 0.00 0.00 72 1021.8
20260901151803 18 40 1.6 9.7 0.00 0.00 0.00 73 1021.6
20260901151703 18 34 3.2 9.7 0.00 0.00 0.00 73 1021.6
20260901151603 18 32 3.2 9.7 0.00 0.00 0.00 73 1021.7
20260901151503 18 39 4.8 9.7 0.00 0.00 0.00 72 1021.6
20260901151403 18 28 3.2 6.4 0.00 0.00 0.00 73 1021.8
20260901151303 18 34 3.2 6.4 0.00 0.00 0.00 73 1021.8
20260901151203 18 23 3.2 6.4 0.00 0.00 0.00 72 1021.6
20260901151103 18 56 1.6 12.9 0.00 0.00 0.00 74 1022.0
20260901151003 18 68 1.6 12.9 0.00 0.00 0.00 75 1021.6
20260901150903 18 71 4.8 12.9 0.00 0.00 0.00 74 1021.8
20260901150803 18 64 4.8 12.9 0.00 0.00 0.00 74 1021.7
20260901150703 18 71 3.2 12.9 0.00 0.00 0.00 75 1021.5
20260901150603 18 68 6.4 12.9 0.00 0.00 0.00 74 1021.8
20260901150503 18 57 6.4 12.9 0.00 0.00 0.00 74 1021.6
20260901150403 18 65 4.8 12.9 0.00 0.00 0.00 73 1021.7
20260901150303 18 84 8.0 12.9 0.00 0.00 0.00 73 1021.9
20260901150218 18 81 4.8 12.9 0.00 0.00 0.00 73 1021.8
20260901150203 18 79 4.8 12.9 0.00 0.00 0.00 73 1021.8
20260901150118 18 72 6.4 12.9 0.00 0.00 0.00 73 1021.7
20260901150103 18 70 6.4 12.9 0.00 0.00 0.00 73 1021.7
20260901145918 18 81 4.8 12.9 0.00 0.00 0.00 74 1021.8
20260901145803 18 57 4.8 12.9 0.00 0.00 0.00 74 1021.9
20260901145604 18 69 3.2 12.9 0.00 0.00 0.00 74 1021.7
20260901145503 18 60 8.0 12.9 0.00 0.00 0.00 74 1021.7
20260901145403 18 59 6.4 12.9 0.00 0.00 0.00 75 1021.8
20260901145306 18 64 6.4 11.3 0.00 0.00 0.00 74 1021.8
20260901145203 18 69 6.4 11.3 0.00 0.00 0.00 74 1021.8
20260901145118 18 69 4.8 11.3 0.00 0.00 0.00 73 1021.7
20260901145103 18 66 4.8 11.3 0.00 0.00 0.00 73 1021.7
20260901145003 18 62 6.4 11.3 0.00 0.00 0.00 73 1021.9
20260901144803 18 68 4.8 11.3 0.00 0.00 0.00 74 1021.8
20260901144717 18 60 6.4 11.3 0.00 0.00 0.00 73 1021.8
20260901144703 18 58 3.2 11.3 0.00 0.00 0.00 74 1021.8
20260901144603 18 52 3.2 11.3 0.00 0.00 0.00 74 1021.9
20260901144403 18 62 3.2 11.3 0.00 0.00 0.00 76 1021.7
20260901144303 18 62 4.8 12.9 0.00 0.00 0.00 75 1021.7
20260901144203 18 95 4.8 12.9 0.00 0.00 0.00 75 1021.7
20260901144103 18 94 3.2 12.9 0.00 0.00 0.00 76 1021.9
20260901144017 18 98 3.2 12.9 0.00 0.00 0.00 76 1021.9
20260901144003 18 99 3.2 12.9 0.00 0.00 0.00 76 1021.9
20260901143903 18 88 6.4 12.9 0.00 0.00 0.00 76 1021.8
20260901143703 17 57 8.0 12.9 0.00 0.00 0.00 76 1021.9
20260901143603 18 60 6.4 12.9 0.00 0.00 0.00 75 1021.8
20260901143503 18 50 6.4 14.5 0.00 0.00 0.00 75 1021.9
20260901143403 18 53 6.4 14.5 0.00 0.00 0.00 75 1021.9
20260901143303 18 54 6.4 14.5 0.00 0.00 0.00 75 1022.1
20260901143203 18 56 4.8 14.5 0.00 0.00 0.00 74 1022.1
20260901143103 18 49 8.0 14.5 0.00 0.00 0.00 73 1022.3
20260901143003 18 61 3.2 9.7 0.00 0.00 0.00 73 1022.1
20260901142903 18 60 3.2 9.7 0.00 0.00 0.00 74 1022.1
20260901142803 18 59 3.2 9.7 0.00 0.00 0.00 74 1022.0
20260901142703 18 54 4.8 9.7 0.00 0.00 0.00 73 1022.0
20260901142617 18 54 1.6 12.9 0.00 0.00 0.00 74 1022.2
20260901142603 18 56 1.6 12.9 0.00 0.00 0.00 74 1022.2
20260901142503 18 53 4.8 12.9 0.00 0.00 0.00 74 1022.2
20260901142305 18 70 3.2 12.9 0.00 0.00 0.00 74 1022.2
20260901142203 18 77 1.6 12.9 0.00 0.00 0.00 74 1021.9
20260901142103 18 78 6.4 12.9 0.00 0.00 0.00 74 1022.1
20260901142017 18 87 6.4 9.7 0.00 0.00 0.00 73 1022.2
20260901142003 18 91 6.4 9.7 0.00 0.00 0.00 73 1022.2
20260901141903 18 104 3.2 11.3 0.00 0.00 0.00 72 1022.1
20260901141703 19 71 3.2 11.3 0.00 0.00 0.00 71 1022.1
20260901141603 20 74 1.6 11.3 0.00 0.00 0.00 72 1022.2
20260901141517 19 64 3.2 11.3 0.00 0.00 0.00 72 1022.0
20260901141503 19 55 6.4 11.3 0.00 0.00 0.00 71 1022.1
20260901141403 19 340 4.8 11.3 0.00 0.00 0.00 71 1022.2
20260901141217 19 164 1.6 6.4 0.00 0.00 0.00 72 1022.0
20260901141203 19 154 1.6 6.4 0.00 0.00 0.00 72 1022.0
20260901141118 19 102 1.6 6.4 0.00 0.00 0.00 72 1021.8
20260901141103 19 94 0.0 6.4 0.00 0.00 0.00 72 1022.2
20260901141017 19 80 3.2 6.4 0.00 0.00 0.00 72 1022.1
20260901140718 19 56 0.0 6.4 0.00 0.00 0.00 72 1021.8
20260901140703 19 53 3.2 6.4 0.00 0.00 0.00 72 1021.9
20260901140617 19 48 3.2 6.4 0.00 0.00 0.00 72 1022.0
20260901140603 19 47 3.2 6.4 0.00 0.00 0.00 72 1022.0
20260901140317 18 29 4.8 9.7 0.00 0.00 0.00 73 1021.7
20260901140303 18 27 3.2 9.7 0.00 0.00 0.00 73 1021.7
20260901140203 18 26 3.2 9.7 0.00 0.00 0.00 73 1021.9
20260901140003 18 170 4.8 9.7 0.00 0.00 0.00 73 1021.8
20260901135917 19 153 1.6 6.4 0.00 0.00 0.00 73 1021.6
20260901135903 19 148 1.6 6.4 0.00 0.00 0.00 73 1021.7
20260901135803 18 137 0.0 6.4 0.00 0.00 0.00 73 1021.9
20260901135603 18 175 3.2 6.4 0.00 0.00 0.00 73 1021.8
20260901135517 18 146 4.8 6.4 0.00 0.00 0.00 72 1021.7
20260901135503 18 139 3.2 6.4 0.00 0.00 0.00 72 1021.7
20260901135403 19 144 1.6 6.4 0.00 0.00 0.00 73 1021.8
20260901135203 18 135 1.6 6.4 0.00 0.00 0.00 74 1021.8
20260901135103 18 116 3.2 6.4 0.00 0.00 0.00 75 1021.6
20260901135003 18 155 3.2 6.4 0.00 0.00 0.00 75 1021.8
20260901134903 18 195 3.2 6.4 0.00 0.00 0.00 75 1021.7
20260901134818 18 206 1.6 6.4 0.00 0.00 0.00 75 1022.0
20260901134803 18 207 1.6 6.4 0.00 0.00 0.00 75 1022.0
20260901134703 18 205 3.2 9.7 0.00 0.00 0.00 76 1021.8
20260901134503 18 169 3.2 9.7 0.00 0.00 0.00 75 1021.9
20260901134418 18 160 3.2 9.7 0.00 0.00 0.00 75 1022.0
20260901134403 18 154 3.2 9.7 0.00 0.00 0.00 75 1022.0
20260901134317 18 150 3.2 9.7 0.00 0.00 0.00 75 1021.7
20260901134303 18 147 4.8 9.7 0.00 0.00 0.00 75 1021.8
20260901134003 18 142 1.6 9.7 0.00 0.00 0.00 75 1021.9
20260901133917 18 174 3.2 9.7 0.00 0.00 0.00 75 1022.1
20260901133903 18 181 1.6 9.7 0.00 0.00 0.00 76 1021.9
20260901133817 18 182 0.0 9.7 0.00 0.00 0.00 76 1021.8
20260901133803 18 185 0.0 9.7 0.00 0.00 0.00 76 1021.8
20260901133503 17 216 3.2 6.4 0.00 0.00 0.00 77 1021.7
20260901133418 17 216 3.2 6.4 0.00 0.00 0.00 77 1021.9
20260901133403 17 220 3.2 6.4 0.00 0.00 0.00 77 1021.9
20260901133303 17 208 3.2 6.4 0.00 0.00 0.00 76 1021.9
20260901133103 18 90 1.6 11.3 0.00 0.00 0.00 75 1021.8
20260901133003 18 93 3.2 11.3 0.00 0.00 0.00 75 1021.8
20260901132903 18 85 3.2 11.3 0.00 0.00 0.00 75 1021.7
20260901132803 18 83 3.2 11.3 0.00 0.00 0.00 75 1021.9
20260901132703 18 95 3.2 6.4 0.00 0.00 0.00 75 1021.9
20260901132603 18 79 3.2 6.4 0.00 0.00 0.00 75 1021.9
20260901132503 18 80 3.2 9.7 0.00 0.00 0.00 75 1021.9
20260901132403 18 68 0.0 9.7 0.00 0.00 0.00 76 1021.7
20260901132306 17 88 3.2 11.3 0.00 0.00 0.00 76 1021.9
20260901132203 17 98 3.2 11.3 0.00 0.00 0.00 76 1021.9
20260901132118 17 108 3.2 11.3 0.00 0.00 0.00 76 1021.7
20260901132103 17 110 3.2 11.3 0.00 0.00 0.00 76 1021.7
20260901132003 17 103 4.8 11.3 0.00 0.00 0.00 76 1022.0
20260901131803 17 95 6.4 11.3 0.00 0.00 0.00 76 1021.9
20260901131703 17 93 6.4 9.7 0.00 0.00 0.00 76 1021.8
20260901131517 17 128 3.2 14.5 0.00 0.00 0.00 76 1021.9
20260901131503 17 123 3.2 17.7 0.00 0.00 0.00 77 1021.7
20260901131403 17 117 3.2 17.7 0.00 0.00 0.00 77 1021.7
20260901131103 16 94 9.7 17.7 0.00 0.00 0.00 77 1021.9
20260901131018 17 93 9.7 17.7 0.00 0.00 0.00 77 1021.7
20260901131003 17 96 9.7 17.7 0.00 0.00 0.00 77 1021.7
20260901130903 17 103 6.4 14.5 0.00 0.00 0.00 77 1021.7
20260901130703 17 104 6.4 14.5 0.00 0.00 0.00 78 1021.8
20260901130603 16 105 8.0 14.5 0.00 0.00 0.00 78 1021.5
20260901130503 17 99 3.2 17.7 0.00 0.00 0.00 78 1021.7
20260901130403 17 90 4.8 17.7 0.00 0.00 0.00 79 1021.9
20260901130303 17 83 6.4 17.7 0.00 0.00 0.00 78 1021.9
20260901130203 17 84 3.2 17.7 0.00 0.00 0.00 79 1021.6
20260901130103 16 77 6.4 17.7 0.00 0.00 0.00 78 1021.6
20260901130003 17 54 8.0 17.7 0.00 0.00 0.00 78 1021.6
20260901125903 17 67 3.2 17.7 0.00 0.00 0.00 78 1021.7
20260901125817 17 71 3.2 17.7 0.00 0.00 0.00 78 1021.8
20260901125803 17 77 3.2 17.7 0.00 0.00 0.00 78 1021.8
20260901125703 17 79 4.8 17.7 0.00 0.00 0.00 78 1021.7
20260901125503 17 109 4.8 17.7 0.00 0.00 0.00 79 1021.8
20260901125403 16 110 6.4 17.7 0.00 0.00 0.00 79 1021.7
20260901125308 16 125 6.4 11.3 0.00 0.00 0.00 79 1021.6
20260901125203 16 115 3.2 11.3 0.00 0.00 0.00 79 1021.6
20260901125117 16 120 1.6 11.3 0.00 0.00 0.00 79 1021.7
20260901125103 16 119 4.8 11.3 0.00 0.00 0.00 79 1021.6
20260901125003 16 107 4.8 11.3 0.00 0.00 0.00 79 1021.7
20260901124803 16 88 6.4 11.3 0.00 0.00 0.00 79 1021.4
20260901124703 17 117 3.2 9.7 0.00 0.00 0.00 79 1021.4
20260901124603 17 113 1.6 9.7 0.00 0.00 0.00 81 1021.6
20260901124504 17 103 1.6 9.7 0.00 0.00 0.00 81 1021.5
20260901124403 16 105 3.2 9.7 0.00 0.00 0.00 81 1021.5
20260901124303 16 113 6.4 12.9 0.00 0.00 0.00 81 1021.4
20260901124203 16 115 3.2 12.9 0.00 0.00 0.00 81 1021.4
20260901124103 16 115 1.6 12.9 0.00 0.00 0.00 82 1021.5
20260901124018 16 117 3.2 12.9 0.00 0.00 0.00 82 1021.4
20260901124003 16 118 3.2 12.9 0.00 0.00 0.00 82 1021.4
20260901123903 16 122 3.2 12.9 0.00 0.00 0.00 82 1021.5
20260901123703 16 133 3.2 9.7 0.00 0.00 0.00 83 1021.4
20260901123618 16 129 1.6 6.4 0.00 0.00 0.00 83 1021.6
20260901123603 16 128 1.6 6.4 0.00 0.00 0.00 83 1021.6
20260901123503 16 130 1.6 9.7 0.00 0.00 0.00 84 1021.5
20260901123303 16 110 1.6 9.7 0.00 0.00 0.00 84 1021.6
20260901123203 16 107 3.2 9.7 0.00 0.00 0.00 84 1021.5
20260901123103 15 108 4.8 9.7 0.00 0.00 0.00 85 1021.2
20260901123003 15 98 6.4 9.7 0.00 0.00 0.00 85 1021.5
20260901122903 15 104 3.2 6.4 0.00 0.00 0.00 85 1021.8
20260901122803 15 119 1.6 6.4 0.00 0.00 0.00 86 1021.4
20260901122703 15 122 1.6 6.4 0.00 0.00 0.00 87 1021.4
20260901122603 15 133 3.2 6.4 0.00 0.00 0.00 87 1021.4
20260901122503 15 145 3.2 6.4 0.00 0.00 0.00 87 1021.4
20260901122403 15 141 1.6 9.7 0.00 0.00 0.00 87 1021.6
20260901122306 15 145 3.2 9.7 0.00 0.00 0.00 88 1021.4
20260901122203 15 147 3.2 9.7 0.00 0.00 0.00 88 1021.7
20260901122103 14 158 3.2 9.7 0.00 0.00 0.00 88 1021.5
20260901122003 14 153 4.8 9.7 0.00 0.00 0.00 88 1021.5
20260901121917 14 141 4.8 9.7 0.00 0.00 0.00 88 1021.6
20260901121903 15 142 3.2 9.7 0.00 0.00 0.00 89 1021.5
20260901121803 14 125 3.2 9.7 0.00 0.00 0.00 89 1021.7
20260901121603 14 134 3.2 6.4 0.00 0.00 0.00 89 1021.6
20260901121503 14 149 1.6 6.4 0.00 0.00 0.00 90 1021.7
20260901121403 14 179 1.6 6.4 0.00 0.00 0.00 90 1021.5
20260901121303 14 199 1.6 6.4 0.00 0.00 0.00 91 1021.6
20260901121203 14 204 1.6 6.4 0.00 0.00 0.00 91 1021.7
20260901121103 13 200 3.2 6.4 0.00 0.00 0.00 91 1021.5
20260901121003 13 173 3.2 6.4 0.00 0.00 0.00 91 1021.5
20260901120903 14 165 1.6 3.2 0.00 0.00 0.00 91 1021.8
20260901120803 14 144 3.2 3.2 0.00 0.00 0.00 91 1021.3
20260901120703 13 139 1.6 3.2 0.00 0.00 0.00 92 1021.5
20260901120603 14 160 0.0 6.4 0.00 0.00 0.00 92 1021.3
20260901120503 14 173 1.6 6.4 0.00 0.00 0.00 92 1021.4
20260901120403 14 177 0.0 6.4 0.00 0.00 0.00 92 1021.3
20260901120303 13 186 1.6 6.4 0.00 0.00 0.00 93 1021.3
20260901120203 13 188 0.0 6.4 0.00 0.00 0.00 93 1021.6
20260901120003 13 161 1.6 6.4 0.00 0.00 0.00 93 1021.2
20260901115903 13 161 0.0 6.4 0.00 0.00 0.00 94 1021.3
20260901115803 13 154 1.6 6.4 0.00 0.00 0.00 93 1021.0
20260901115703 13 125 1.6 6.4 0.00 0.00 0.00 94 1021.2
20260901115603 13 118 1.6 6.4 0.00 0.00 0.00 94 1021.2
20260901115503 13 118 0.0 3.2 0.00 0.00 0.00 94 1021.0
20260901115403 13 116 0.0 6.4 0.00 0.00 0.00 94 1021.0
20260901115306 13 111 0.0 6.4 0.00 0.00 0.00 94 1021.1
20260901115203 13 106 0.0 6.4 0.00 0.00 0.00 94 1021.3
20260901115103 13 117 0.0 6.4 0.00 0.00 0.00 95 1021.0
20260901115003 13 131 0.0 6.4 0.00 0.00 0.00 95 1021.1
20260901114903 13 139 3.2 6.4 0.00 0.00 0.00 95 1021.2
20260901114803 13 148 1.6 3.2 0.00 0.00 0.00 95 1021.2
20260901114703 13 154 0.0 6.4 0.00 0.00 0.00 95 1021.1
20260901114603 13 125 1.6 6.4 0.00 0.00 0.00 95 1021.1
20260901114503 13 120 1.6 6.4 0.00 0.00 0.00 95 1021.1
20260901114403 13 118 0.0 6.4 0.00 0.00 0.00 95 1021.1
20260901114303 12 119 0.0 6.4 0.00 0.00 0.00 95 1021.1
20260901114203 12 139 3.2 6.4 0.00 0.00 0.00 95 1021.2
20260901114117 13 163 0.0 6.4 0.00 0.00 0.00 95 1021.0
20260901114103 13 166 0.0 6.4 0.00 0.00 0.00 95 1021.0
20260901114003 12 203 1.6 6.4 0.00 0.00 0.00 95 1021.0
20260901113803 12 188 1.6 6.4 0.00 0.00 0.00 96 1020.8
20260901113703 12 158 0.0 6.4 0.00 0.00 0.00 96 1021.0
20260901113603 12 154 1.6 6.4 0.00 0.00 0.00 96 1021.1
20260901113503 12 117 1.6 6.4 0.00 0.00 0.00 96 1021.0
20260901113403 12 101 1.6 3.2 0.00 0.00 0.00 96 1020.8
20260901113303 12 108 1.6 3.2 0.00 0.00 0.00 96 1020.8
20260901113218 12 90 1.6 3.2 0.00 0.00 0.00 96 1021.1
20260901113203 12 71 1.6 3.2 0.00 0.00 0.00 96 1021.1
20260901113103 12 112 1.6 3.2 0.00 0.00 0.00 96 1020.8
20260901112903 12 46 0.0 6.4 0.00 0.00 0.00 96 1020.8
20260901112803 12 46 0.0 6.4 0.00 0.00 0.00 96 1020.7
20260901112703 12 168 0.0 6.4 0.00 0.00 0.00 96 1020.8
20260901112603 12 173 0.0 6.4 0.00 0.00 0.00 96 1020.8
20260901112503 12 136 3.2 6.4 0.00 0.00 0.00 96 1020.9
20260901112403 12 135 0.0 6.4 0.00 0.00 0.00 96 1020.7
20260901112306 12 139 1.6 6.4 0.00 0.00 0.00 96 1020.7
20260901112203 12 136 0.0 3.2 0.00 0.00 0.00 96 1020.6
20260901112103 12 137 0.0 3.2 0.00 0.00 0.00 96 1020.7
20260901112003 12 147 0.0 3.2 0.00 0.00 0.00 96 1020.7
20260901111903 12 153 0.0 3.2 0.00 0.00 0.00 96 1020.8
20260901111803 12 167 0.0 3.2 0.00 0.00 0.00 96 1020.8
20260901111703 12 186 0.0 3.2 0.00 0.00 0.00 96 1020.8
20260901111603 12 194 0.0 3.2 0.00 0.00 0.00 96 1020.5
20260901111503 12 209 1.6 3.2 0.00 0.00 0.00 96 1020.7
20260901111403 12 217 1.6 6.4 0.00 0.00 0.00 96 1020.8
20260901111317 12 213 1.6 6.4 0.00 0.00 0.00 96 1020.7
20260901111303 12 212 1.6 6.4 0.00 0.00 0.00 96 1020.7
20260901111204 12 208 0.0 6.4 0.00 0.00 0.00 96 1020.7
20260901111003 11 213 1.6 6.4 0.00 0.00 0.00 96 1020.6
20260901110903 11 223 3.2 6.4 0.00 0.00 0.00 96 1020.8
20260901110803 12 234 1.6 6.4 0.00 0.00 0.00 96 1020.6
20260901110703 11 224 0.0 6.4 0.00 0.00 0.00 96 1020.8
20260901110605 11 227 1.6 6.4 0.00 0.00 0.00 96 1020.7
20260901110503 11 218 1.6 3.2 0.00 0.00 0.00 96 1020.7
20260901110403 11 196 0.0 3.2 0.00 0.00 0.00 96 1020.7
20260901110318 11 163 1.6 6.4 0.00 0.00 0.00 96 1020.7
20260901110303 11 159 1.6 6.4 0.00 0.00 0.00 96 1020.7
20260901110218 11 165 1.6 6.4 0.00 0.00 0.00 96 1020.7
20260901110203 11 163 1.6 6.4 0.00 0.00 0.00 96 1020.7
20260901110017 11 139 0.0 6.4 0.00 0.00 0.00 96 1020.7
20260901105903 11 151 1.6 6.4 0.00 0.00 0.00 96 1020.4
20260901105703 11 171 1.6 6.4 0.00 0.00 0.00 96 1020.6
20260901105603 11 158 1.6 9.7 0.00 0.00 0.00 96 1020.8
20260901105503 11 151 0.0 9.7 0.00 0.00 0.00 96 1020.8
20260901105403 11 148 1.6 9.7 0.00 0.00 0.00 96 1020.5
20260901105305 11 137 1.6 9.7 0.00 0.00 0.00 96 1020.8
20260901105203 11 143 1.6 9.7 0.00 0.00 0.00 96 1020.6
20260901105103 11 166 3.2 6.4 0.00 0.00 0.00 96 1020.6
20260901105003 11 177 1.6 9.7 0.00 0.00 0.00 96 1020.7
20260901104903 11 194 1.6 12.9 0.00 0.00 0.00 96 1020.6
20260901104803 11 197 3.2 12.9 0.00 0.00 0.00 96 1020.5
20260901104717 11 186 3.2 12.9 0.00 0.00 0.00 96 1020.8
20260901104703 11 182 3.2 12.9 0.00 0.00 0.00 96 1020.5
20260901104603 11 180 3.2 12.9 0.00 0.00 0.00 96 1020.5
20260901104403 11 163 4.8 12.9 0.00 0.00 0.00 96 1020.6
20260901104304 11 142 6.4 12.9 0.00 0.00 0.00 96 1020.7
20260901104203 11 146 1.6 11.3 0.00 0.00 0.00 96 1020.5
20260901104103 11 149 1.6 11.3 0.00 0.00 0.00 96 1020.6
20260901104017 11 149 3.2 11.3 0.00 0.00 0.00 96 1020.6
20260901104003 11 150 3.2 11.3 0.00 0.00 0.00 96 1020.6
20260901103903 11 147 3.2 11.3 0.00 0.00 0.00 96 1020.5
20260901103703 11 202 1.6 9.7 0.00 0.00 0.00 96 1020.6
20260901103603 11 202 0.0 9.7 0.00 0.00 0.00 96 1020.4
20260901103503 11 211 1.6 9.7 0.00 0.00 0.00 96 1020.5
20260901103403 11 209 3.2 9.7 0.00 0.00 0.00 96 1020.5
20260901103303 11 207 3.2 9.7 0.00 0.00 0.00 96 1020.4
20260901103203 11 200 3.2 9.7 0.00 0.00 0.00 96 1020.3
20260901103103 11 199 3.2 9.7 0.00 0.00 0.00 96 1020.4
20260901103005 11 177 3.2 9.7 0.00 0.00 0.00 96 1020.3
20260901102904 11 180 3.2 9.7 0.00 0.00 0.00 96 1020.4
20260901102803 11 199 3.2 9.7 0.00 0.00 0.00 96 1020.3
20260901102703 12 211 3.2 6.4 0.00 0.00 0.00 96 1020.2
20260901102603 12 210 3.2 6.4 0.00 0.00 0.00 96 1020.5
20260901102503 12 225 3.2 6.4 0.00 0.00 0.00 96 1020.3
20260901102403 12 231 3.2 6.4 0.00 0.00 0.00 96 1020.2